Time,TemperatureF,DewpointF,PressureIn,WindDirection,WindDirectionDegrees,WindSpeedMPH,WindSpeedGustMPH,Humidity,HourlyPrecipIn,Conditions,Clouds,dailyrainin,SoftwareType,DateUTC
2013-03-17 00:00:00,52.2,41.2,29.79,West,261,0.0,0.0,66,0.00,,SCT,0.00,WeatherDisplay:10.37,2013-03-17 04:00:00,
2013-03-17 00:01:00,52.2,41.2,29.79,West,261,0.0,0.0,66,0.00,,SCT,0.00,WeatherDisplay:10.37,2013-03-17 04:01:00,
2013-03-17 00:02:00,52.2,41.2,29.79,West,261,0.0,0.0,66,0.00,,SCT,0.00,WeatherDisplay:10.37,2013-03-17 04:02:00,
2013-03-17 00:05:00,52.3,41.7,29.79,West,261,0.0,0.0,67,0.00,,SCT,0.00,WeatherDisplay:10.37,2013-03-17 04:05:00,
2013-03-17 00:07:00,52.5,41.9,29.78,West,261,0.0,0.0,67,0.00,,SCT,0.00,WeatherDisplay:10.37,2013-03-17 04:07:00,
2013-03-17 00:08:00,52.5,41.9,29.78,West,261,0.0,0.0,67,0.00,,SCT,0.00,WeatherDisplay:10.37,2013-03-17 04:08:00,
2013-03-17 00:10:00,52.8,42.1,29.78,West,261,0.0,0.0,67,0.00,,SCT,0.00,WeatherDisplay:10.37,2013-03-17 04:10:00,
2013-03-17 00:11:00,52.8,42.1,29.79,West,261,0.0,0.0,67,0.00,,SCT,0.00,WeatherDisplay:10.37,2013-03-17 04:11:00,
2013-03-17 00:15:00,53.1,42.4,29.79,West,261,0.0,0.0,67,0.00,,SCT,0.00,WeatherDisplay:10.37,2013-03-17 04:15:00,
2013-03-17 00:16:00,53.2,42.5,29.79,West,261,0.0,0.0,67,0.00,,SCT,0.00,WeatherDisplay:10.37,2013-03-17 04:16:00,
2013-03-17 00:17:00,53.2,42.5,29.79,West,261,0.0,0.0,67,0.00,,SCT,0.00,WeatherDisplay:10.37,2013-03-17 04:17:00,
2013-03-17 00:22:00,53.5,43.2,29.79,West,261,0.0,0.0,68,0.00,,SCT,0.00,WeatherDisplay:10.37,2013-03-17 04:22:00,
2013-03-17 00:27:00,53.6,42.9,29.79,West,261,0.0,0.0,67,0.00,,SCT,0.00,WeatherDisplay:10.37,2013-03-17 04:27:00,
2013-03-17 00:31:00,53.8,43.5,29.78,West,261,0.0,0.0,68,0.00,,SCT,0.00,WeatherDisplay:10.37,2013-03-17 04:31:00,
2013-03-17 00:32:00,53.9,43.6,29.78,West,261,0.0,0.0,68,0.00,,SCT,0.00,WeatherDisplay:10.37,2013-03-17 04:32:00,
2013-03-17 00:37:00,54.2,43.9,29.78,West,261,0.0,0.0,68,0.00,,SCT,0.00,WeatherDisplay:10.37,2013-03-17 04:37:00,
2013-03-17 00:38:00,54.4,44.1,29.78,West,261,0.0,0.0,68,0.00,,SCT,0.00,WeatherDisplay:10.37,2013-03-17 04:38:00,
2013-03-17 00:40:00,54.4,44.1,29.78,West,261,0.0,0.0,68,0.00,,SCT,0.00,WeatherDisplay:10.37,2013-03-17 04:40:00,
2013-03-17 00:43:00,54.5,43.8,29.78,West,261,0.0,0.0,67,0.00,,SCT,0.00,WeatherDisplay:10.37,2013-03-17 04:43:00,
2013-03-17 00:44:00,54.5,44.2,29.78,West,261,0.0,0.0,68,0.00,,SCT,0.00,WeatherDisplay:10.37,2013-03-17 04:44:00,
2013-03-17 00:48:00,54.7,44.3,29.78,West,261,0.0,0.0,68,0.00,,SCT,0.00,WeatherDisplay:10.37,2013-03-17 04:48:00,
2013-03-17 00:49:00,54.7,44.7,29.78,West,261,0.0,0.0,69,0.00,,SCT,0.00,WeatherDisplay:10.37,2013-03-17 04:49:00,
2013-03-17 00:51:00,54.8,44.8,29.78,West,261,0.0,0.0,69,0.00,,SCT,0.00,WeatherDisplay:10.37,2013-03-17 04:51:00,
2013-03-17 00:54:00,54.8,44.8,29.78,West,261,0.0,0.0,69,0.00,,SCT,0.00,WeatherDisplay:10.37,2013-03-17 04:54:00,
2013-03-17 00:59:00,55.0,45.0,29.77,West,261,0.0,0.0,69,0.00,,SCT,0.00,WeatherDisplay:10.37,2013-03-17 04:59:00,
2013-03-17 01:05:00,55.0,45.0,29.77,West,261,0.0,0.0,69,0.00,,SCT,0.00,WeatherDisplay:10.37,2013-03-17 05:05:00,
2013-03-17 01:08:00,55.0,45.0,29.77,West,261,0.0,0.0,69,0.00,,SCT,0.00,WeatherDisplay:10.37,2013-03-17 05:08:00,
2013-03-17 01:10:00,55.0,45.0,29.77,West,261,0.0,0.0,69,0.00,,SCT,0.00,WeatherDisplay:10.37,2013-03-17 05:10:00,
2013-03-17 01:15:00,54.8,44.8,29.77,West,261,0.0,0.0,69,0.00,,SCT,0.00,WeatherDisplay:10.37,2013-03-17 05:15:00,
2013-03-17 01:16:00,54.8,44.8,29.77,West,261,0.0,0.0,69,0.00,,SCT,0.00,WeatherDisplay:10.37,2013-03-17 05:16:00,
2013-03-17 01:20:00,54.8,44.8,29.77,West,261,0.0,0.0,69,0.00,,SCT,0.00,WeatherDisplay:10.37,2013-03-17 05:20:00,
2013-03-17 01:25:00,54.7,44.7,29.77,West,261,0.0,0.0,69,0.00,,SCT,0.00,WeatherDisplay:10.37,2013-03-17 05:25:00,
2013-03-17 01:27:00,54.7,44.7,29.77,West,261,0.0,0.0,69,0.00,,SCT,0.00,WeatherDisplay:10.37,2013-03-17 05:27:00,
2013-03-17 01:29:00,54.7,44.7,29.77,West,261,0.0,0.0,69,0.00,,SCT,0.00,WeatherDisplay:10.37,2013-03-17 05:29:00,
2013-03-17 01:31:00,54.7,44.7,29.77,West,261,0.0,0.0,69,0.00,,SCT,0.00,WeatherDisplay:10.37,2013-03-17 05:31:00,
2013-03-17 01:32:00,54.7,44.7,29.77,West,261,0.0,0.0,69,0.00,,SCT,0.00,WeatherDisplay:10.37,2013-03-17 05:32:00,
2013-03-17 01:37:00,54.7,44.7,29.77,West,261,0.0,0.0,69,0.00,,SCT,0.00,WeatherDisplay:10.37,2013-03-17 05:37:00,
2013-03-17 01:39:00,54.5,44.5,29.77,West,261,0.0,0.0,69,0.00,,SCT,0.00,WeatherDisplay:10.37,2013-03-17 05:39:00,
2013-03-17 01:42:00,54.5,44.5,29.77,West,261,0.0,0.0,69,0.00,,SCT,0.00,WeatherDisplay:10.37,2013-03-17 05:42:00,
2013-03-17 01:44:00,54.5,44.5,29.77,West,261,0.0,0.0,69,0.00,,SCT,0.00,WeatherDisplay:10.37,2013-03-17 05:44:00,
2013-03-17 01:46:00,54.4,44.4,29.77,West,261,0.0,0.0,69,0.00,,SCT,0.00,WeatherDisplay:10.37,2013-03-17 05:46:00,
2013-03-17 01:49:00,54.2,44.2,29.77,West,261,0.0,0.0,69,0.00,,SCT,0.00,WeatherDisplay:10.37,2013-03-17 05:49:00,
2013-03-17 01:52:00,54.2,44.2,29.77,West,261,0.0,0.0,69,0.00,,SCT,0.00,WeatherDisplay:10.37,2013-03-17 05:52:00,
2013-03-17 01:53:00,54.1,44.2,29.77,West,261,0.0,0.0,69,0.00,,SCT,0.00,WeatherDisplay:10.37,2013-03-17 05:53:00,
2013-03-17 01:55:00,54.1,44.2,29.77,West,261,0.0,0.0,69,0.00,,SCT,0.00,WeatherDisplay:10.37,2013-03-17 05:55:00,
2013-03-17 01:59:00,53.9,44.0,29.77,West,261,0.0,0.0,69,0.00,,SCT,0.00,WeatherDisplay:10.37,2013-03-17 05:59:00,
2013-03-17 02:01:00,53.8,43.9,29.77,West,261,0.0,0.0,69,0.00,,SCT,0.00,WeatherDisplay:10.37,2013-03-17 06:01:00,
2013-03-17 02:02:00,53.8,43.9,29.77,West,261,0.0,0.0,69,0.00,,SCT,0.00,WeatherDisplay:10.37,2013-03-17 06:02:00,
2013-03-17 02:04:00,53.6,43.7,29.77,West,261,0.0,0.0,69,0.00,,SCT,0.00,WeatherDisplay:10.37,2013-03-17 06:04:00,
2013-03-17 02:07:00,53.5,44.0,29.77,West,261,0.0,0.0,70,0.00,,SCT,0.00,WeatherDisplay:10.37,2013-03-17 06:07:00,
2013-03-17 02:08:00,53.5,43.6,29.77,West,261,0.0,0.0,69,0.00,,SCT,0.00,WeatherDisplay:10.37,2013-03-17 06:08:00,
2013-03-17 02:12:00,53.3,43.4,29.77,West,261,0.0,0.0,69,0.00,,SCT,0.00,WeatherDisplay:10.37,2013-03-17 06:12:00,
2013-03-17 02:13:00,53.2,43.3,29.77,West,261,0.0,0.0,69,0.00,,SCT,0.00,WeatherDisplay:10.37,2013-03-17 06:13:00,
2013-03-17 02:14:00,53.2,43.3,29.77,West,261,0.0,0.0,69,0.00,,SCT,0.00,WeatherDisplay:10.37,2013-03-17 06:14:00,
2013-03-17 02:15:00,53.2,43.7,29.77,West,261,0.0,0.0,70,0.00,,SCT,0.00,WeatherDisplay:10.37,2013-03-17 06:15:00,
2013-03-17 02:18:00,53.1,43.6,29.77,West,261,0.0,0.0,70,0.00,,SCT,0.00,WeatherDisplay:10.37,2013-03-17 06:18:00,
2013-03-17 02:20:00,52.9,43.4,29.77,West,261,0.0,0.0,70,0.00,,SCT,0.00,WeatherDisplay:10.37,2013-03-17 06:20:00,
2013-03-17 02:22:00,52.8,43.3,29.77,West,261,0.0,0.0,70,0.00,,SCT,0.00,WeatherDisplay:10.37,2013-03-17 06:22:00,
2013-03-17 02:25:00,52.8,43.3,29.77,West,261,0.0,0.0,70,0.00,,SCT,0.00,WeatherDisplay:10.37,2013-03-17 06:25:00,
2013-03-17 02:26:00,52.8,43.3,29.77,West,261,0.0,0.0,70,0.00,,SCT,0.00,WeatherDisplay:10.37,2013-03-17 06:26:00,
2013-03-17 02:28:00,52.6,43.1,29.78,West,261,0.0,0.0,70,0.00,,SCT,0.00,WeatherDisplay:10.37,2013-03-17 06:28:00,
2013-03-17 02:31:00,52.6,43.1,29.78,West,261,0.0,0.0,70,0.00,,SCT,0.00,WeatherDisplay:10.37,2013-03-17 06:31:00,
2013-03-17 02:33:00,52.6,43.1,29.78,West,261,0.0,0.0,70,0.00,,SCT,0.00,WeatherDisplay:10.37,2013-03-17 06:33:00,
2013-03-17 02:34:00,52.6,43.1,29.78,West,261,0.0,0.0,70,0.00,,SCT,0.00,WeatherDisplay:10.37,2013-03-17 06:34:00,
2013-03-17 02:36:00,52.6,43.5,29.78,West,261,0.0,0.0,71,0.00,,SCT,0.00,WeatherDisplay:10.37,2013-03-17 06:36:00,
2013-03-17 02:37:00,52.6,43.5,29.78,West,261,0.0,0.0,71,0.00,,SCT,0.00,WeatherDisplay:10.37,2013-03-17 06:37:00,
2013-03-17 02:39:00,52.6,43.5,29.78,West,261,0.0,0.0,71,0.00,,SCT,0.00,WeatherDisplay:10.37,2013-03-17 06:39:00,
2013-03-17 02:41:00,52.8,43.7,29.78,West,261,0.0,0.0,71,0.00,,SCT,0.00,WeatherDisplay:10.37,2013-03-17 06:41:00,
2013-03-17 02:42:00,52.9,43.7,29.78,West,261,0.0,0.0,71,0.00,,SCT,0.00,WeatherDisplay:10.37,2013-03-17 06:42:00,
2013-03-17 02:45:00,53.1,43.9,29.78,West,261,0.0,0.0,71,0.00,,SCT,0.00,WeatherDisplay:10.37,2013-03-17 06:45:00,
2013-03-17 02:48:00,53.3,44.5,29.78,West,261,0.0,0.0,72,0.00,,SCT,0.00,WeatherDisplay:10.37,2013-03-17 06:48:00,
2013-03-17 02:51:00,53.5,44.7,29.78,West,261,0.0,0.0,72,0.00,,SCT,0.00,WeatherDisplay:10.37,2013-03-17 06:51:00,
2013-03-17 02:54:00,53.6,44.4,29.78,West,261,0.0,0.0,71,0.00,,SCT,0.00,WeatherDisplay:10.37,2013-03-17 06:54:00,
2013-03-17 02:55:00,53.8,44.6,29.78,West,261,0.0,0.0,71,0.00,,SCT,0.00,WeatherDisplay:10.37,2013-03-17 06:55:00,
2013-03-17 02:56:00,53.8,44.6,29.78,West,261,0.0,0.0,71,0.00,,SCT,0.00,WeatherDisplay:10.37,2013-03-17 06:56:00,
2013-03-17 02:59:00,53.9,44.7,29.77,West,261,0.0,0.0,71,0.00,,SCT,0.00,WeatherDisplay:10.37,2013-03-17 06:59:00,
2013-03-17 03:01:00,54.1,44.9,29.77,West,261,0.0,0.0,71,0.00,,SCT,0.00,WeatherDisplay:10.37,2013-03-17 07:01:00,
2013-03-17 03:04:00,54.2,45.0,29.77,West,261,0.0,0.0,71,0.00,,SCT,0.00,WeatherDisplay:10.37,2013-03-17 07:04:00,
2013-03-17 03:05:00,54.2,45.0,29.78,West,261,0.0,0.0,71,0.00,,SCT,0.00,WeatherDisplay:10.37,2013-03-17 07:05:00,
2013-03-17 03:06:00,54.2,45.0,29.78,West,261,0.0,0.0,71,0.00,,SCT,0.00,WeatherDisplay:10.37,2013-03-17 07:06:00,
2013-03-17 03:11:00,54.2,45.0,29.78,West,261,0.0,0.0,71,0.00,,SCT,0.00,WeatherDisplay:10.37,2013-03-17 07:11:00,
2013-03-17 03:12:00,54.4,45.2,29.78,West,261,0.0,0.0,71,0.00,,SCT,0.00,WeatherDisplay:10.37,2013-03-17 07:12:00,
2013-03-17 03:14:00,54.4,45.2,29.77,West,261,0.0,0.0,71,0.00,,SCT,0.00,WeatherDisplay:10.37,2013-03-17 07:14:00,
2013-03-17 03:16:00,54.4,45.2,29.77,West,261,0.0,0.0,71,0.00,,SCT,0.00,WeatherDisplay:10.37,2013-03-17 07:16:00,
2013-03-17 03:20:00,54.2,45.0,29.77,West,261,0.0,0.0,71,0.00,,SCT,0.00,WeatherDisplay:10.37,2013-03-17 07:20:00,
2013-03-17 03:21:00,54.2,45.0,29.77,West,261,0.0,0.0,71,0.00,,SCT,0.00,WeatherDisplay:10.37,2013-03-17 07:21:00,
2013-03-17 03:22:00,54.2,45.0,29.77,West,261,0.0,0.0,71,0.00,,SCT,0.00,WeatherDisplay:10.37,2013-03-17 07:22:00,
2013-03-17 03:26:00,54.2,45.0,29.77,West,261,0.0,0.0,71,0.00,,SCT,0.00,WeatherDisplay:10.37,2013-03-17 07:26:00,
2013-03-17 03:27:00,54.2,45.0,29.77,West,261,0.0,0.0,71,0.00,,SCT,0.00,WeatherDisplay:10.37,2013-03-17 07:27:00,
2013-03-17 03:28:00,54.2,45.4,29.77,West,261,0.0,0.0,72,0.00,,SCT,0.00,WeatherDisplay:10.37,2013-03-17 07:28:00,
2013-03-17 03:30:00,54.2,45.4,29.77,West,261,0.0,0.0,72,0.00,,SCT,0.00,WeatherDisplay:10.37,2013-03-17 07:30:00,
2013-03-17 03:34:00,54.1,45.3,29.77,West,261,0.0,0.0,72,0.00,,SCT,0.00,WeatherDisplay:10.37,2013-03-17 07:34:00,
2013-03-17 03:35:00,54.1,45.3,29.77,West,261,0.0,0.0,72,0.00,,SCT,0.00,WeatherDisplay:10.37,2013-03-17 07:35:00,
2013-03-17 03:39:00,53.9,45.1,29.77,West,261,0.0,0.0,72,0.00,,SCT,0.00,WeatherDisplay:10.37,2013-03-17 07:39:00,
2013-03-17 03:41:00,53.9,45.1,29.77,West,261,0.0,0.0,72,0.00,,SCT,0.00,WeatherDisplay:10.37,2013-03-17 07:41:00,
2013-03-17 03:46:00,53.9,45.1,29.77,West,261,0.0,0.0,72,0.00,,SCT,0.00,WeatherDisplay:10.37,2013-03-17 07:46:00,
2013-03-17 03:47:00,53.9,45.1,29.77,West,261,0.0,0.0,72,0.00,,SCT,0.00,WeatherDisplay:10.37,2013-03-17 07:47:00,
2013-03-17 03:48:00,53.9,45.1,29.77,West,261,0.0,0.0,72,0.00,,SCT,0.00,WeatherDisplay:10.37,2013-03-17 07:48:00,
2013-03-17 03:52:00,53.8,45.0,29.77,West,261,0.0,0.0,72,0.00,,SCT,0.00,WeatherDisplay:10.37,2013-03-17 07:52:00,
2013-03-17 03:54:00,53.8,45.0,29.77,West,261,0.0,0.0,72,0.00,,SCT,0.00,WeatherDisplay:10.37,2013-03-17 07:54:00,
2013-03-17 03:56:00,53.8,45.0,29.77,West,261,0.0,0.0,72,0.00,,SCT,0.00,WeatherDisplay:10.37,2013-03-17 07:56:00,
2013-03-17 03:58:00,53.8,45.3,29.77,West,261,0.0,0.0,73,0.00,,SCT,0.00,WeatherDisplay:10.37,2013-03-17 07:58:00,
2013-03-17 04:03:00,53.6,45.2,29.77,West,261,0.0,0.0,73,0.00,,SCT,0.00,WeatherDisplay:10.37,2013-03-17 08:03:00,
2013-03-17 04:04:00,53.6,45.2,29.77,West,261,0.0,0.0,73,0.00,,SCT,0.00,WeatherDisplay:10.37,2013-03-17 08:04:00,
2013-03-17 04:06:00,53.6,45.2,29.77,West,261,0.0,0.0,73,0.00,,SCT,0.00,WeatherDisplay:10.37,2013-03-17 08:06:00,
2013-03-17 04:12:00,53.6,45.2,29.77,West,261,0.0,0.0,73,0.00,,SCT,0.00,WeatherDisplay:10.37,2013-03-17 08:12:00,
2013-03-17 04:13:00,53.6,45.2,29.77,West,261,0.0,0.0,73,0.00,,SCT,0.00,WeatherDisplay:10.37,2013-03-17 08:13:00,
2013-03-17 04:14:00,53.6,45.2,29.76,West,261,0.0,0.0,73,0.00,,SCT,0.00,WeatherDisplay:10.37,2013-03-17 08:14:00,
2013-03-17 04:17:00,53.6,45.2,29.76,West,261,0.0,0.0,73,0.00,,SCT,0.00,WeatherDisplay:10.37,2013-03-17 08:17:00,
2013-03-17 04:18:00,53.6,45.2,29.76,West,261,0.0,0.0,73,0.00,,SCT,0.00,WeatherDisplay:10.37,2013-03-17 08:18:00,
2013-03-17 04:23:00,53.6,45.2,29.76,West,261,0.0,0.0,73,0.00,,SCT,0.00,WeatherDisplay:10.37,2013-03-17 08:23:00,
2013-03-17 04:25:00,53.6,45.2,29.76,West,261,0.0,0.0,73,0.00,,SCT,0.00,WeatherDisplay:10.37,2013-03-17 08:25:00,
2013-03-17 04:29:00,53.6,45.2,29.76,West,261,0.0,0.0,73,0.00,,SCT,0.00,WeatherDisplay:10.37,2013-03-17 08:29:00,
2013-03-17 04:32:00,53.6,45.2,29.76,West,261,0.0,0.0,73,0.00,,SCT,0.00,WeatherDisplay:10.37,2013-03-17 08:32:00,
2013-03-17 04:33:00,53.6,45.2,29.75,West,261,0.0,0.0,73,0.00,,SCT,0.00,WeatherDisplay:10.37,2013-03-17 08:33:00,
2013-03-17 04:35:00,53.6,45.2,29.75,West,261,0.0,0.0,73,0.00,,SCT,0.00,WeatherDisplay:10.37,2013-03-17 08:35:00,
2013-03-17 04:37:00,53.5,45.1,29.75,West,261,0.0,0.0,73,0.00,,SCT,0.00,WeatherDisplay:10.37,2013-03-17 08:37:00,
2013-03-17 04:38:00,53.5,45.1,29.75,West,261,0.0,0.0,73,0.00,,SCT,0.00,WeatherDisplay:10.37,2013-03-17 08:38:00,
2013-03-17 04:41:00,53.5,45.1,29.75,West,261,0.0,0.0,73,0.00,,SCT,0.00,WeatherDisplay:10.37,2013-03-17 08:41:00,
2013-03-17 04:43:00,53.5,45.1,29.75,West,261,0.0,0.0,73,0.00,,SCT,0.00,WeatherDisplay:10.37,2013-03-17 08:43:00,
2013-03-17 04:44:00,53.5,45.1,29.75,West,261,0.0,0.0,73,0.00,,SCT,0.00,WeatherDisplay:10.37,2013-03-17 08:44:00,
2013-03-17 04:46:00,53.5,45.1,29.75,West,261,0.0,0.0,73,0.00,,SCT,0.00,WeatherDisplay:10.37,2013-03-17 08:46:00,
2013-03-17 04:49:00,53.5,45.1,29.76,West,261,0.0,0.0,73,0.00,,SCT,0.00,WeatherDisplay:10.37,2013-03-17 08:49:00,
2013-03-17 04:50:00,53.5,45.1,29.76,West,261,0.0,0.0,73,0.00,,SCT,0.00,WeatherDisplay:10.37,2013-03-17 08:50:00,
2013-03-17 04:54:00,53.5,45.1,29.76,West,261,0.0,0.0,73,0.00,,SCT,0.00,WeatherDisplay:10.37,2013-03-17 08:54:00,
2013-03-17 04:55:00,53.5,45.1,29.75,West,261,0.0,0.0,73,0.00,,SCT,0.00,WeatherDisplay:10.37,2013-03-17 08:55:00,
2013-03-17 04:56:00,53.5,45.1,29.75,West,261,0.0,0.0,73,0.00,,SCT,0.00,WeatherDisplay:10.37,2013-03-17 08:56:00,
2013-03-17 04:59:00,53.5,45.1,29.75,West,261,0.0,0.0,73,0.00,,SCT,0.00,WeatherDisplay:10.37,2013-03-17 08:59:00,
2013-03-17 05:00:00,53.5,45.1,29.76,West,261,0.0,0.0,73,0.00,,SCT,0.00,WeatherDisplay:10.37,2013-03-17 09:00:00,
2013-03-17 05:02:00,53.5,45.1,29.76,West,261,0.0,0.0,73,0.00,,SCT,0.00,WeatherDisplay:10.37,2013-03-17 09:02:00,
2013-03-17 05:05:00,53.5,45.1,29.76,West,261,0.0,0.0,73,0.00,,SCT,0.00,WeatherDisplay:10.37,2013-03-17 09:05:00,
2013-03-17 05:06:00,53.5,45.1,29.76,West,261,0.0,0.0,73,0.00,,SCT,0.00,WeatherDisplay:10.37,2013-03-17 09:06:00,
2013-03-17 05:08:00,53.5,45.1,29.76,West,261,0.0,0.0,73,0.00,,SCT,0.00,WeatherDisplay:10.37,2013-03-17 09:08:00,
2013-03-17 05:11:00,53.5,45.1,29.76,West,261,0.0,0.0,73,0.00,,SCT,0.00,WeatherDisplay:10.37,2013-03-17 09:11:00,
2013-03-17 05:14:00,53.5,45.1,29.76,West,261,0.0,0.0,73,0.00,,SCT,0.00,WeatherDisplay:10.37,2013-03-17 09:14:00,
2013-03-17 05:15:00,53.5,45.1,29.76,West,261,0.0,0.0,73,0.00,,SCT,0.00,WeatherDisplay:10.37,2013-03-17 09:15:00,
2013-03-17 05:20:00,53.5,45.4,29.77,West,261,0.0,0.0,74,0.00,,SCT,0.00,WeatherDisplay:10.37,2013-03-17 09:20:00,
2013-03-17 05:23:00,53.5,45.1,29.77,West,261,0.0,0.0,73,0.00,,SCT,0.00,WeatherDisplay:10.37,2013-03-17 09:23:00,
2013-03-17 05:26:00,53.6,45.2,29.77,West,261,0.0,0.0,73,0.00,,SCT,0.00,WeatherDisplay:10.37,2013-03-17 09:26:00,
2013-03-17 05:27:00,53.6,45.2,29.77,West,261,0.0,0.0,73,0.00,,SCT,0.00,WeatherDisplay:10.37,2013-03-17 09:27:00,
2013-03-17 05:28:00,53.6,45.2,29.77,West,261,0.0,0.0,73,0.00,,SCT,0.00,WeatherDisplay:10.37,2013-03-17 09:28:00,
2013-03-17 05:33:00,53.6,45.5,29.77,West,261,0.0,0.0,74,0.00,,SCT,0.00,WeatherDisplay:10.37,2013-03-17 09:33:00,
2013-03-17 05:35:00,53.6,45.5,29.77,West,261,0.0,0.0,74,0.00,,SCT,0.00,WeatherDisplay:10.37,2013-03-17 09:35:00,
2013-03-17 05:38:00,53.8,45.7,29.77,West,261,0.0,0.0,74,0.00,,SCT,0.00,WeatherDisplay:10.37,2013-03-17 09:38:00,
2013-03-17 05:39:00,53.8,45.7,29.77,West,261,0.0,0.0,74,0.00,,SCT,0.00,WeatherDisplay:10.37,2013-03-17 09:39:00,
2013-03-17 05:43:00,53.8,45.7,29.77,West,261,0.0,0.0,74,0.00,,SCT,0.00,WeatherDisplay:10.37,2013-03-17 09:43:00,
2013-03-17 05:44:00,53.8,45.7,29.77,West,261,0.0,0.0,74,0.00,,SCT,0.00,WeatherDisplay:10.37,2013-03-17 09:44:00,
2013-03-17 05:46:00,53.8,45.7,29.78,West,261,0.0,0.0,74,0.00,,SCT,0.00,WeatherDisplay:10.37,2013-03-17 09:46:00,
2013-03-17 05:50:00,53.8,45.7,29.78,West,261,0.0,0.0,74,0.00,,SCT,0.00,WeatherDisplay:10.37,2013-03-17 09:50:00,
2013-03-17 05:51:00,53.8,45.7,29.78,West,261,0.0,0.0,74,0.00,,SCT,0.00,WeatherDisplay:10.37,2013-03-17 09:51:00,
2013-03-17 05:55:00,53.8,45.7,29.78,West,261,0.0,0.0,74,0.00,,SCT,0.00,WeatherDisplay:10.37,2013-03-17 09:55:00,
2013-03-17 05:56:00,53.8,45.7,29.78,West,261,0.0,0.0,74,0.00,,SCT,0.00,WeatherDisplay:10.37,2013-03-17 09:56:00,
2013-03-17 05:58:00,53.8,45.7,29.78,West,261,0.0,0.0,74,0.00,,SCT,0.00,WeatherDisplay:10.37,2013-03-17 09:58:00,
2013-03-17 06:02:00,53.9,46.2,29.78,West,261,0.0,0.0,75,0.00,,SCT,0.00,WeatherDisplay:10.37,2013-03-17 10:02:00,
2013-03-17 06:04:00,53.9,46.2,29.78,West,261,0.0,0.0,75,0.00,,SCT,0.00,WeatherDisplay:10.37,2013-03-17 10:04:00,
2013-03-17 06:07:00,53.9,46.2,29.78,West,261,0.0,0.0,75,0.00,,SCT,0.00,WeatherDisplay:10.37,2013-03-17 10:07:00,
2013-03-17 06:10:00,54.1,46.3,29.78,West,261,0.0,0.0,75,0.00,,SCT,0.00,WeatherDisplay:10.37,2013-03-17 10:10:00,
2013-03-17 06:12:00,54.1,46.3,29.78,West,261,0.0,0.0,75,0.00,,SCT,0.00,WeatherDisplay:10.37,2013-03-17 10:12:00,
2013-03-17 06:14:00,54.1,46.3,29.78,West,261,0.0,0.0,75,0.00,,SCT,0.00,WeatherDisplay:10.37,2013-03-17 10:14:00,
2013-03-17 06:15:00,54.1,46.3,29.78,West,261,0.0,0.0,75,0.00,,SCT,0.00,WeatherDisplay:10.37,2013-03-17 10:15:00,
2013-03-17 06:16:00,54.1,46.3,29.78,West,261,0.0,0.0,75,0.00,,SCT,0.00,WeatherDisplay:10.37,2013-03-17 10:16:00,
2013-03-17 06:22:00,54.1,46.3,29.79,West,261,0.0,0.0,75,0.00,,SCT,0.00,WeatherDisplay:10.37,2013-03-17 10:22:00,
2013-03-17 06:23:00,54.1,46.3,29.79,West,261,0.0,0.0,75,0.00,,SCT,0.00,WeatherDisplay:10.37,2013-03-17 10:23:00,
2013-03-17 06:27:00,54.1,46.3,29.79,West,261,0.0,0.0,75,0.00,,SCT,0.00,WeatherDisplay:10.37,2013-03-17 10:27:00,
2013-03-17 06:28:00,54.1,46.3,29.79,West,261,0.0,0.0,75,0.00,,SCT,0.00,WeatherDisplay:10.37,2013-03-17 10:28:00,
2013-03-17 06:32:00,54.1,46.3,29.79,West,261,0.0,0.0,75,0.00,,SCT,0.00,WeatherDisplay:10.37,2013-03-17 10:32:00,
2013-03-17 06:33:00,54.1,46.3,29.79,West,261,0.0,0.0,75,0.00,,SCT,0.00,WeatherDisplay:10.37,2013-03-17 10:33:00,
2013-03-17 06:35:00,54.2,46.4,29.79,West,261,0.0,0.0,75,0.00,,SCT,0.00,WeatherDisplay:10.37,2013-03-17 10:35:00,
2013-03-17 06:37:00,54.2,46.8,29.79,West,261,0.0,0.0,76,0.00,,SCT,0.00,WeatherDisplay:10.37,2013-03-17 10:37:00,
2013-03-17 06:41:00,54.2,46.8,29.80,West,261,0.0,0.0,76,0.00,,SCT,0.00,WeatherDisplay:10.37,2013-03-17 10:41:00,
2013-03-17 06:42:00,54.2,46.8,29.80,West,261,0.0,0.0,76,0.00,,SCT,0.00,WeatherDisplay:10.37,2013-03-17 10:42:00,
2013-03-17 06:43:00,54.2,46.8,29.80,West,261,0.0,0.0,76,0.00,,SCT,0.00,WeatherDisplay:10.37,2013-03-17 10:43:00,
2013-03-17 06:45:00,54.2,46.8,29.80,West,261,0.0,0.0,76,0.00,,SCT,0.00,WeatherDisplay:10.37,2013-03-17 10:45:00,
2013-03-17 06:46:00,54.2,46.8,29.80,West,261,0.0,0.0,76,0.00,,SCT,0.00,WeatherDisplay:10.37,2013-03-17 10:46:00,
2013-03-17 06:48:00,54.2,46.8,29.80,West,261,0.0,0.0,76,0.00,,SCT,0.00,WeatherDisplay:10.37,2013-03-17 10:48:00,
2013-03-17 06:52:00,54.2,46.8,29.80,West,261,0.0,0.0,76,0.00,,SCT,0.00,WeatherDisplay:10.37,2013-03-17 10:52:00,
2013-03-17 06:53:00,54.2,46.8,29.80,West,261,0.0,0.0,76,0.00,,SCT,0.00,WeatherDisplay:10.37,2013-03-17 10:53:00,
2013-03-17 06:54:00,54.2,46.8,29.80,West,261,0.0,0.0,76,0.00,,SCT,0.00,WeatherDisplay:10.37,2013-03-17 10:54:00,
2013-03-17 06:57:00,54.2,46.8,29.80,NW,319,2.3,2.3,76,0.00,,SCT,0.00,WeatherDisplay:10.37,2013-03-17 10:57:00,
2013-03-17 06:59:00,54.2,46.8,29.80,NNE,31,5.8,5.8,76,0.00,,SCT,0.00,WeatherDisplay:10.37,2013-03-17 10:59:00,
2013-03-17 07:02:00,54.5,47.1,29.81,NNE,31,3.5,3.5,76,0.00,,SCT,0.00,WeatherDisplay:10.37,2013-03-17 11:02:00,
2013-03-17 07:05:00,54.8,47.4,29.81,NNE,31,3.5,3.5,76,0.00,,SCT,0.00,WeatherDisplay:10.37,2013-03-17 11:05:00,
2013-03-17 07:07:00,55.0,47.6,29.81,NNE,31,4.6,4.6,76,0.00,,SCT,0.00,WeatherDisplay:10.37,2013-03-17 11:07:00,
2013-03-17 07:11:00,55.3,47.9,29.81,NNE,30,4.6,4.6,76,0.00,CLR,SCT,0.00,WeatherDisplay:10.37,2013-03-17 11:11:00,
2013-03-17 07:16:00,55.6,48.2,29.82,NNE,31,3.5,3.5,76,0.00,CLR,SCT,0.00,WeatherDisplay:10.37,2013-03-17 11:16:00,
2013-03-17 07:23:00,55.9,48.4,29.82,NNE,31,0.0,0.0,76,0.00,CLR,SCT,0.00,WeatherDisplay:10.37,2013-03-17 11:23:00,
2013-03-17 07:24:00,55.9,48.4,29.82,NNE,31,0.0,0.0,76,0.00,CLR,SCT,0.00,WeatherDisplay:10.37,2013-03-17 11:24:00,
2013-03-17 07:28:00,55.9,48.1,29.82,NNE,31,0.0,0.0,75,0.00,CLR,SCT,0.00,WeatherDisplay:10.37,2013-03-17 11:28:00,
2013-03-17 07:29:00,55.9,48.4,29.82,NNE,31,0.0,0.0,76,0.00,CLR,SCT,0.00,WeatherDisplay:10.37,2013-03-17 11:29:00,
2013-03-17 07:32:00,55.9,48.4,29.82,NE,50,0.0,0.0,76,0.00,CLR,SCT,0.00,WeatherDisplay:10.37,2013-03-17 11:32:00,
2013-03-17 07:34:00,55.9,48.4,29.82,NE,50,0.0,0.0,76,0.00,CLR,SCT,0.00,WeatherDisplay:10.37,2013-03-17 11:34:00,
2013-03-17 07:36:00,55.9,48.4,29.82,NE,50,0.0,0.0,76,0.00,CLR,SCT,0.00,WeatherDisplay:10.37,2013-03-17 11:36:00,
2013-03-17 07:39:00,55.9,48.4,29.82,NE,50,0.0,0.0,76,0.00,CLR,SCT,0.00,WeatherDisplay:10.37,2013-03-17 11:39:00,
2013-03-17 07:42:00,55.9,48.4,29.82,NE,50,0.0,0.0,76,0.00,CLR,SCT,0.00,WeatherDisplay:10.37,2013-03-17 11:42:00,
2013-03-17 07:44:00,55.9,48.4,29.82,NE,50,0.0,0.0,76,0.00,CLR,SCT,0.00,WeatherDisplay:10.37,2013-03-17 11:44:00,
2013-03-17 07:48:00,55.7,48.2,29.82,NE,50,0.0,0.0,76,0.00,CLR,SCT,0.00,WeatherDisplay:10.37,2013-03-17 11:48:00,
2013-03-17 07:49:00,55.7,48.2,29.82,NE,50,0.0,0.0,76,0.00,CLR,SCT,0.00,WeatherDisplay:10.37,2013-03-17 11:49:00,
2013-03-17 07:53:00,55.7,48.2,29.82,ENE,66,0.0,0.0,76,0.00,CLR,SCT,0.00,WeatherDisplay:10.37,2013-03-17 11:53:00,
2013-03-17 07:55:00,55.6,48.5,29.82,ENE,66,0.0,0.0,77,0.00,CLR,SCT,0.00,WeatherDisplay:10.37,2013-03-17 11:55:00,
2013-03-17 07:58:00,55.6,48.5,29.82,ENE,66,0.0,0.0,77,0.00,CLR,SCT,0.00,WeatherDisplay:10.37,2013-03-17 11:58:00,
2013-03-17 08:00:00,55.6,48.5,29.82,ENE,66,0.0,0.0,77,0.00,CLR,SCT,0.00,WeatherDisplay:10.37,2013-03-17 12:00:00,
2013-03-17 08:02:00,55.4,48.3,29.82,ENE,66,0.0,0.0,77,0.00,CLR,SCT,0.00,WeatherDisplay:10.37,2013-03-17 12:02:00,
2013-03-17 08:05:00,55.3,48.2,29.83,ENE,66,0.0,0.0,77,0.00,CLR,SCT,0.00,WeatherDisplay:10.37,2013-03-17 12:05:00,
2013-03-17 08:08:00,55.3,48.2,29.82,ENE,66,0.0,0.0,77,0.00,CLR,SCT,0.00,WeatherDisplay:10.37,2013-03-17 12:08:00,
2013-03-17 08:09:00,55.3,48.2,29.82,ENE,66,0.0,0.0,77,0.00,CLR,SCT,0.00,WeatherDisplay:10.37,2013-03-17 12:09:00,
2013-03-17 08:10:00,55.3,48.2,29.82,ENE,66,0.0,0.0,77,0.00,CLR,SCT,0.00,WeatherDisplay:10.37,2013-03-17 12:10:00,
2013-03-17 08:13:00,55.1,48.0,29.83,ENE,66,0.0,0.0,77,0.00,CLR,SCT,0.00,WeatherDisplay:10.37,2013-03-17 12:13:00,
2013-03-17 08:14:00,55.1,48.0,29.83,ENE,66,0.0,0.0,77,0.00,CLR,SCT,0.00,WeatherDisplay:10.37,2013-03-17 12:14:00,
2013-03-17 08:18:00,55.1,48.0,29.83,ENE,66,0.0,0.0,77,0.00,CLR,SCT,0.00,WeatherDisplay:10.37,2013-03-17 12:18:00,
2013-03-17 08:20:00,55.0,47.9,29.83,ENE,66,0.0,0.0,77,0.00,CLR,SCT,0.00,WeatherDisplay:10.37,2013-03-17 12:20:00,
2013-03-17 08:21:00,55.0,48.3,29.83,ENE,66,3.5,3.5,78,0.00,CLR,SCT,0.00,WeatherDisplay:10.37,2013-03-17 12:21:00,
2013-03-17 08:23:00,55.1,48.4,29.83,ENE,66,0.0,0.0,78,0.00,CLR,SCT,0.00,WeatherDisplay:10.37,2013-03-17 12:23:00,
2013-03-17 08:28:00,55.0,48.3,29.83,ENE,66,0.0,0.0,78,0.00,CLR,SCT,0.00,WeatherDisplay:10.37,2013-03-17 12:28:00,
2013-03-17 08:31:00,55.0,48.3,29.83,ENE,66,0.0,0.0,78,0.00,CLR,SCT,0.00,WeatherDisplay:10.37,2013-03-17 12:31:00,
2013-03-17 08:32:00,55.0,48.3,29.83,ENE,66,0.0,0.0,78,0.00,CLR,SCT,0.00,WeatherDisplay:10.37,2013-03-17 12:32:00,
2013-03-17 08:33:00,55.0,48.3,29.83,ENE,66,0.0,0.0,78,0.00,CLR,SCT,0.00,WeatherDisplay:10.37,2013-03-17 12:33:00,
2013-03-17 08:35:00,55.0,48.3,29.83,ENE,66,2.0,2.0,78,0.00,CLR,SCT,0.00,WeatherDisplay:10.37,2013-03-17 12:35:00,
2013-03-17 08:38:00,55.1,48.4,29.83,ENE,66,3.5,3.5,78,0.00,CLR,SCT,0.00,WeatherDisplay:10.37,2013-03-17 12:38:00,
2013-03-17 08:39:00,55.1,48.4,29.83,ENE,66,3.5,3.5,78,0.00,CLR,SCT,0.00,WeatherDisplay:10.37,2013-03-17 12:39:00,
2013-03-17 08:40:00,55.1,48.4,29.83,ENE,66,3.5,3.5,78,0.00,CLR,SCT,0.00,WeatherDisplay:10.37,2013-03-17 12:40:00,
2013-03-17 08:43:00,55.3,48.6,29.83,ENE,66,1.1,0.0,78,0.00,CLR,SCT,0.00,WeatherDisplay:10.37,2013-03-17 12:43:00,
2013-03-17 08:44:00,55.3,48.6,29.83,ENE,66,0.0,0.0,78,0.00,CLR,SCT,0.00,WeatherDisplay:10.37,2013-03-17 12:44:00,
2013-03-17 08:49:00,55.4,48.7,29.83,ENE,66,0.0,0.0,78,0.00,CLR,SCT,0.00,WeatherDisplay:10.37,2013-03-17 12:49:00,
2013-03-17 08:50:00,55.4,48.7,29.83,ENE,66,0.0,0.0,78,0.00,CLR,SCT,0.00,WeatherDisplay:10.37,2013-03-17 12:50:00,
2013-03-17 08:53:00,55.6,48.8,29.83,ENE,66,0.0,0.0,78,0.00,CLR,SCT,0.00,WeatherDisplay:10.37,2013-03-17 12:53:00,
2013-03-17 08:57:00,55.7,48.9,29.84,ENE,66,0.0,0.0,78,0.00,CLR,SCT,0.00,WeatherDisplay:10.37,2013-03-17 12:57:00,
2013-03-17 08:58:00,55.7,48.9,29.83,ENE,65,2.3,2.3,78,0.00,CLR,SCT,0.00,WeatherDisplay:10.37,2013-03-17 12:58:00,
2013-03-17 08:59:00,55.7,49.3,29.84,ENE,64,3.5,3.5,79,0.00,CLR,SCT,0.00,WeatherDisplay:10.37,2013-03-17 12:59:00,
2013-03-17 09:03:00,55.9,49.1,29.84,ENE,61,3.5,3.5,78,0.00,CLR,SCT,0.00,WeatherDisplay:10.37,2013-03-17 13:03:00,
2013-03-17 09:04:00,55.9,49.1,29.84,ENE,61,0.0,0.0,78,0.00,CLR,SCT,0.00,WeatherDisplay:10.37,2013-03-17 13:04:00,
2013-03-17 09:06:00,55.9,49.1,29.85,ENE,61,3.5,3.5,78,0.00,CLR,SCT,0.00,WeatherDisplay:10.37,2013-03-17 13:06:00,
2013-03-17 09:09:00,55.9,49.1,29.85,ENE,61,0.0,0.0,78,0.00,CLR,SCT,0.00,WeatherDisplay:10.37,2013-03-17 13:09:00,
2013-03-17 09:14:00,55.9,49.1,29.85,ENE,61,0.0,0.0,78,0.00,CLR,SCT,0.00,WeatherDisplay:10.37,2013-03-17 13:14:00,
2013-03-17 09:15:00,56.0,49.2,29.85,ENE,61,0.0,0.0,78,0.00,CLR,SCT,0.00,WeatherDisplay:10.37,2013-03-17 13:15:00,
2013-03-17 09:18:00,56.0,49.2,29.85,ENE,61,3.5,3.5,78,0.00,CLR,SCT,0.00,WeatherDisplay:10.37,2013-03-17 13:18:00,
2013-03-17 09:20:00,56.0,49.2,29.85,ENE,61,0.0,0.0,78,0.00,CLR,SCT,0.00,WeatherDisplay:10.37,2013-03-17 13:20:00,
2013-03-17 09:22:00,56.0,49.2,29.86,ENE,61,0.0,0.0,78,0.00,CLR,SCT,0.00,WeatherDisplay:10.37,2013-03-17 13:22:00,
2013-03-17 09:23:00,56.0,49.2,29.86,ENE,61,3.5,3.5,78,0.00,CLR,SCT,0.00,WeatherDisplay:10.37,2013-03-17 13:23:00,
2013-03-17 09:25:00,56.0,49.2,29.86,ENE,61,3.5,3.5,78,0.00,CLR,SCT,0.00,WeatherDisplay:10.37,2013-03-17 13:25:00,
2013-03-17 09:28:00,56.0,49.2,29.86,ENE,61,3.5,3.5,78,0.00,CLR,SCT,0.00,WeatherDisplay:10.37,2013-03-17 13:28:00,
2013-03-17 09:30:00,56.0,49.2,29.86,ENE,61,3.5,3.5,78,0.00,CLR,SCT,0.00,WeatherDisplay:10.37,2013-03-17 13:30:00,
2013-03-17 09:32:00,56.0,49.2,29.86,ENE,61,3.5,3.5,78,0.00,CLR,SCT,0.00,WeatherDisplay:10.37,2013-03-17 13:32:00,
2013-03-17 09:33:00,56.0,49.2,29.86,ENE,61,3.5,3.5,78,0.00,CLR,SCT,0.00,WeatherDisplay:10.37,2013-03-17 13:33:00,
2013-03-17 09:35:00,56.0,49.2,29.86,ENE,61,4.6,4.6,78,0.00,CLR,SCT,0.00,WeatherDisplay:10.37,2013-03-17 13:35:00,
2013-03-17 09:38:00,56.0,49.6,29.86,ENE,61,4.0,4.0,79,0.00,CLR,SCT,0.00,WeatherDisplay:10.37,2013-03-17 13:38:00,
2013-03-17 09:40:00,56.0,49.6,29.86,ENE,61,4.0,4.0,79,0.00,CLR,SCT,0.00,WeatherDisplay:10.37,2013-03-17 13:40:00,
2013-03-17 09:42:00,56.2,49.8,29.86,ENE,61,4.6,4.6,79,0.00,CLR,SCT,0.00,WeatherDisplay:10.37,2013-03-17 13:42:00,
2013-03-17 09:44:00,56.2,49.8,29.86,ENE,61,3.5,3.5,79,0.00,CLR,SCT,0.00,WeatherDisplay:10.37,2013-03-17 13:44:00,
2013-03-17 09:45:00,56.2,49.8,29.86,ENE,61,3.5,3.5,79,0.00,CLR,SCT,0.00,WeatherDisplay:10.37,2013-03-17 13:45:00,
2013-03-17 09:48:00,56.3,49.9,29.86,ENE,61,0.0,0.0,79,0.00,CLR,SCT,0.00,WeatherDisplay:10.37,2013-03-17 13:48:00,
2013-03-17 09:49:00,56.3,49.9,29.86,ENE,61,0.0,0.0,79,0.00,CLR,SCT,0.00,WeatherDisplay:10.37,2013-03-17 13:49:00,
2013-03-17 09:51:00,56.3,49.9,29.86,ENE,61,3.5,3.5,79,0.00,CLR,SCT,0.00,WeatherDisplay:10.37,2013-03-17 13:51:00,
2013-03-17 09:53:00,56.5,50.1,29.86,ENE,61,0.0,0.0,79,0.00,CLR,SCT,0.00,WeatherDisplay:10.37,2013-03-17 13:53:00,
2013-03-17 09:57:00,56.5,50.1,29.86,ENE,61,3.5,3.5,79,0.00,CLR,SCT,0.00,WeatherDisplay:10.37,2013-03-17 13:57:00,
2013-03-17 09:58:00,56.6,50.2,29.86,ENE,61,4.6,4.6,79,0.00,CLR,SCT,0.00,WeatherDisplay:10.37,2013-03-17 13:58:00,
2013-03-17 09:59:00,56.6,50.2,29.86,ENE,61,3.5,3.5,79,0.00,CLR,SCT,0.00,WeatherDisplay:10.37,2013-03-17 13:59:00,
2013-03-17 10:02:00,56.6,50.2,29.86,ENE,61,0.0,0.0,79,0.00,CLR,SCT,0.00,WeatherDisplay:10.37,2013-03-17 14:02:00,
2013-03-17 10:03:00,56.6,50.2,29.86,ENE,61,3.5,3.5,79,0.00,CLR,SCT,0.00,WeatherDisplay:10.37,2013-03-17 14:03:00,
2013-03-17 10:04:00,56.6,50.2,29.86,ENE,61,2.3,2.3,79,0.00,CLR,SCT,0.00,WeatherDisplay:10.37,2013-03-17 14:04:00,
2013-03-17 10:07:00,56.7,49.9,29.87,ENE,61,3.5,3.5,78,0.00,CLR,SCT,0.00,WeatherDisplay:10.37,2013-03-17 14:07:00,
2013-03-17 10:10:00,56.7,49.9,29.87,ENE,63,5.8,5.8,78,0.00,CLR,SCT,0.00,WeatherDisplay:10.37,2013-03-17 14:10:00,
2013-03-17 10:12:00,56.9,50.1,29.87,ENE,63,5.8,5.8,78,0.00,CLR,SCT,0.00,WeatherDisplay:10.37,2013-03-17 14:12:00,
2013-03-17 10:13:00,56.9,50.1,29.87,ENE,63,5.8,5.8,78,0.00,CLR,SCT,0.00,WeatherDisplay:10.37,2013-03-17 14:13:00,
2013-03-17 10:17:00,56.9,50.1,29.88,ENE,63,5.8,5.8,78,0.00,CLR,SCT,0.00,WeatherDisplay:10.37,2013-03-17 14:17:00,
2013-03-17 10:18:00,56.9,49.8,29.88,ENE,63,5.8,5.8,77,0.00,CLR,SCT,0.00,WeatherDisplay:10.37,2013-03-17 14:18:00,
2013-03-17 10:23:00,57.0,50.2,29.88,ENE,67,4.6,4.6,78,0.00,CLR,SCT,0.00,WeatherDisplay:10.37,2013-03-17 14:23:00,
2013-03-17 10:27:00,57.2,50.4,29.87,ENE,67,5.0,5.0,78,0.00,CLR,SCT,0.00,WeatherDisplay:10.37,2013-03-17 14:27:00,
2013-03-17 10:29:00,57.2,50.1,29.87,ENE,67,4.6,4.6,77,0.00,CLR,SCT,0.00,WeatherDisplay:10.37,2013-03-17 14:29:00,
2013-03-17 10:30:00,57.3,50.5,29.87,ENE,67,4.6,4.6,78,0.00,CLR,SCT,0.00,WeatherDisplay:10.37,2013-03-17 14:30:00,
2013-03-17 10:32:00,57.5,50.7,29.87,ENE,67,3.5,3.7,78,0.00,CLR,SCT,0.00,WeatherDisplay:10.37,2013-03-17 14:32:00,
2013-03-17 10:34:00,57.5,50.3,29.87,ENE,67,3.5,0.0,77,0.00,CLR,SCT,0.00,WeatherDisplay:10.37,2013-03-17 14:34:00,
2013-03-17 10:39:00,57.6,50.4,29.87,ENE,74,5.0,5.0,77,0.00,CLR,SCT,0.00,WeatherDisplay:10.37,2013-03-17 14:39:00,
2013-03-17 10:40:00,57.6,50.4,29.87,ENE,74,4.6,4.6,77,0.00,CLR,SCT,0.00,WeatherDisplay:10.37,2013-03-17 14:40:00,
2013-03-17 10:45:00,57.6,50.1,29.87,ENE,77,4.6,4.6,76,0.00,CLR,SCT,0.00,WeatherDisplay:10.37,2013-03-17 14:45:00,
2013-03-17 10:47:00,57.8,50.3,29.87,East,80,5.8,5.8,76,0.00,CLR,SCT,0.00,WeatherDisplay:10.37,2013-03-17 14:47:00,
2013-03-17 10:48:00,57.8,50.3,29.87,East,80,5.0,5.0,76,0.00,CLR,SCT,0.00,WeatherDisplay:10.37,2013-03-17 14:48:00,
2013-03-17 10:51:00,58.0,50.1,29.87,East,80,5.0,5.0,75,0.00,CLR,SCT,0.00,WeatherDisplay:10.37,2013-03-17 14:51:00,
2013-03-17 10:56:00,58.0,50.1,29.87,East,80,3.0,3.0,75,0.00,CLR,SCT,0.00,WeatherDisplay:10.37,2013-03-17 14:56:00,
2013-03-17 10:58:00,58.0,50.1,29.87,East,80,1.0,0.0,75,0.00,CLR,SCT,0.00,WeatherDisplay:10.37,2013-03-17 14:58:00,
2013-03-17 11:03:00,58.3,50.4,29.87,East,80,0.0,0.0,75,0.00,CLR,SCT,0.00,WeatherDisplay:10.37,2013-03-17 15:03:00,
2013-03-17 11:04:00,58.3,50.4,29.87,East,80,0.0,0.0,75,0.00,CLR,SCT,0.00,WeatherDisplay:10.37,2013-03-17 15:04:00,
2013-03-17 11:08:00,58.6,50.3,29.87,East,80,5.0,5.0,74,0.00,CLR,SCT,0.00,WeatherDisplay:10.37,2013-03-17 15:08:00,
2013-03-17 11:13:00,58.7,50.4,29.87,ENE,77,3.0,3.0,74,0.00,CLR,SCT,0.00,WeatherDisplay:10.37,2013-03-17 15:13:00,
2013-03-17 11:14:00,58.7,50.4,29.87,ENE,77,3.5,3.5,74,0.00,CLR,SCT,0.00,WeatherDisplay:10.37,2013-03-17 15:14:00,
2013-03-17 11:20:00,59.0,50.4,29.87,ENE,77,3.5,3.5,73,0.00,CLR,SCT,0.00,WeatherDisplay:10.37,2013-03-17 15:20:00,
2013-03-17 11:23:00,59.2,50.9,29.87,ENE,77,2.0,0.0,74,0.00,CLR,SCT,0.00,WeatherDisplay:10.37,2013-03-17 15:23:00,
2013-03-17 11:25:00,59.2,50.5,29.87,ENE,77,3.5,3.5,73,0.00,CLR,SCT,0.00,WeatherDisplay:10.37,2013-03-17 15:25:00,
2013-03-17 11:27:00,59.3,50.6,29.87,ENE,77,3.5,3.5,73,0.00,CLR,SCT,0.00,WeatherDisplay:10.37,2013-03-17 15:27:00,
2013-03-17 11:29:00,59.3,50.6,29.87,ENE,77,0.0,0.0,73,0.00,CLR,SCT,0.00,WeatherDisplay:10.37,2013-03-17 15:29:00,
2013-03-17 11:33:00,59.6,50.9,29.86,ENE,77,5.8,5.8,73,0.00,CLR,SCT,0.00,WeatherDisplay:10.37,2013-03-17 15:33:00,
2013-03-17 11:36:00,59.8,51.1,29.86,ENE,77,3.5,3.5,73,0.00,CLR,SCT,0.00,WeatherDisplay:10.37,2013-03-17 15:36:00,
2013-03-17 11:37:00,59.8,51.1,29.86,ENE,77,2.3,2.3,73,0.00,CLR,SCT,0.00,WeatherDisplay:10.37,2013-03-17 15:37:00,
2013-03-17 11:38:00,59.8,51.1,29.86,ENE,77,0.0,0.0,73,0.00,CLR,SCT,0.00,WeatherDisplay:10.37,2013-03-17 15:38:00,
2013-03-17 11:43:00,59.9,51.2,29.86,ENE,77,0.0,0.0,73,0.00,CLR,SCT,0.00,WeatherDisplay:10.37,2013-03-17 15:43:00,
2013-03-17 11:47:00,60.1,51.0,29.86,ESE,111,2.0,2.0,72,0.00,CLR,SCT,0.00,WeatherDisplay:10.37,2013-03-17 15:47:00,
2013-03-17 11:48:00,60.1,51.0,29.86,ESE,111,3.5,3.5,72,0.00,CLR,SCT,0.00,WeatherDisplay:10.37,2013-03-17 15:48:00,
2013-03-17 11:53:00,60.4,51.3,29.86,East,92,0.0,0.0,72,0.00,CLR,SCT,0.00,WeatherDisplay:10.37,2013-03-17 15:53:00,
2013-03-17 11:54:00,60.4,51.3,29.86,East,92,1.1,1.1,72,0.00,CLR,SCT,0.00,WeatherDisplay:10.37,2013-03-17 15:54:00,
2013-03-17 11:57:00,60.5,51.4,29.86,East,92,1.1,1.1,72,0.00,CLR,SCT,0.00,WeatherDisplay:10.37,2013-03-17 15:57:00,
2013-03-17 11:59:00,60.7,51.2,29.86,East,92,2.3,2.3,71,0.00,CLR,SCT,0.00,WeatherDisplay:10.37,2013-03-17 15:59:00,
2013-03-17 12:00:00,60.7,51.2,29.86,East,92,2.3,2.3,71,0.00,CLR,SCT,0.00,WeatherDisplay:10.37,2013-03-17 16:00:00,
2013-03-17 12:04:00,60.9,51.8,29.86,East,92,0.0,0.0,72,0.00,CLR,SCT,0.00,WeatherDisplay:10.37,2013-03-17 16:04:00,
2013-03-17 12:05:00,61.0,51.5,29.86,East,92,0.0,0.0,71,0.00,CLR,SCT,0.00,WeatherDisplay:10.37,2013-03-17 16:05:00,
2013-03-17 12:07:00,61.2,51.7,29.85,East,92,0.0,0.0,71,0.00,CLR,SCT,0.00,WeatherDisplay:10.37,2013-03-17 16:07:00,
2013-03-17 12:10:00,61.3,51.8,29.85,East,92,0.0,0.0,71,0.00,CLR,SCT,0.00,WeatherDisplay:10.37,2013-03-17 16:10:00,
2013-03-17 12:12:00,61.5,52.0,29.85,East,92,0.0,0.0,71,0.00,CLR,SCT,0.00,WeatherDisplay:10.37,2013-03-17 16:12:00,
2013-03-17 12:13:00,61.5,52.0,29.85,East,92,0.0,0.0,71,0.00,CLR,SCT,0.00,WeatherDisplay:10.37,2013-03-17 16:13:00,
2013-03-17 12:18:00,61.8,52.3,29.85,East,92,0.0,0.0,71,0.00,CLR,SCT,0.00,WeatherDisplay:10.37,2013-03-17 16:18:00,
2013-03-17 12:20:00,62.0,52.5,29.85,East,92,0.0,0.0,71,0.00,CLR,SCT,0.00,WeatherDisplay:10.37,2013-03-17 16:20:00,
2013-03-17 12:23:00,62.3,52.4,29.85,SSW,196,2.3,2.3,70,0.00,CLR,SCT,0.00,WeatherDisplay:10.37,2013-03-17 16:23:00,
2013-03-17 12:28:00,62.6,52.7,29.84,SSW,196,0.0,0.0,70,0.00,CLR,SCT,0.00,WeatherDisplay:10.37,2013-03-17 16:28:00,
2013-03-17 12:29:00,62.6,53.1,29.84,SSW,196,2.3,2.3,71,0.00,CLR,SCT,0.00,WeatherDisplay:10.37,2013-03-17 16:29:00,
2013-03-17 12:30:00,62.6,53.1,29.84,SSW,196,2.3,0.0,71,0.00,CLR,SCT,0.00,WeatherDisplay:10.37,2013-03-17 16:30:00,
2013-03-17 12:31:00,62.7,52.8,29.84,SSW,200,0.0,0.2,70,0.00,CLR,SCT,0.00,WeatherDisplay:10.37,2013-03-17 16:31:00,
2013-03-17 12:34:00,62.9,53.0,29.84,SSW,200,0.0,0.0,70,0.00,CLR,SCT,0.00,WeatherDisplay:10.37,2013-03-17 16:34:00,
2013-03-17 12:35:00,63.1,53.2,29.84,SSW,200,0.0,0.0,70,0.00,CLR,SCT,0.00,WeatherDisplay:10.37,2013-03-17 16:35:00,
2013-03-17 12:39:00,63.4,53.4,29.84,SW,223,1.1,1.1,70,0.00,CLR,SCT,0.00,WeatherDisplay:10.37,2013-03-17 16:39:00,
2013-03-17 12:40:00,63.4,53.0,29.84,SW,223,1.1,1.1,69,0.00,CLR,SCT,0.00,WeatherDisplay:10.37,2013-03-17 16:40:00,
2013-03-17 12:45:00,63.7,52.9,29.84,SW,235,2.3,2.3,68,0.00,CLR,SCT,0.00,WeatherDisplay:10.37,2013-03-17 16:45:00,
2013-03-17 12:48:00,63.7,53.3,29.83,SW,236,2.3,2.3,69,0.00,CLR,SCT,0.00,WeatherDisplay:10.37,2013-03-17 16:48:00,
2013-03-17 12:49:00,63.7,52.9,29.83,West,267,4.6,4.6,68,0.00,CLR,SCT,0.00,WeatherDisplay:10.37,2013-03-17 16:49:00,
2013-03-17 12:54:00,63.7,52.5,29.83,WSW,252,6.9,6.9,67,0.00,CLR,SCT,0.00,WeatherDisplay:10.37,2013-03-17 16:54:00,
2013-03-17 12:55:00,63.7,52.5,29.83,West,259,7.0,7.0,67,0.00,CLR,SCT,0.00,WeatherDisplay:10.37,2013-03-17 16:55:00,
2013-03-17 12:58:00,63.7,52.1,29.83,West,269,3.5,3.5,66,0.00,CLR,SCT,0.00,WeatherDisplay:10.37,2013-03-17 16:58:00,
2013-03-17 13:01:00,63.9,52.3,29.82,West,265,4.6,4.6,66,0.00,CLR,SCT,0.00,WeatherDisplay:10.37,2013-03-17 17:01:00,
2013-03-17 13:02:00,63.9,51.9,29.82,West,265,4.6,4.6,65,0.00,CLR,SCT,0.00,WeatherDisplay:10.37,2013-03-17 17:02:00,
2013-03-17 13:04:00,63.9,52.3,29.82,West,270,5.8,5.8,66,0.00,CLR,SCT,0.00,WeatherDisplay:10.37,2013-03-17 17:04:00,
2013-03-17 13:08:00,64.0,52.0,29.82,WSW,255,7.0,7.0,65,0.00,CLR,SCT,0.00,WeatherDisplay:10.37,2013-03-17 17:08:00,
2013-03-17 13:09:00,64.2,52.6,29.82,West,262,6.9,6.9,66,0.00,CLR,SCT,0.00,WeatherDisplay:10.37,2013-03-17 17:09:00,
2013-03-17 13:12:00,64.3,52.3,29.81,West,270,8.1,8.1,65,0.00,CLR,SCT,0.00,WeatherDisplay:10.37,2013-03-17 17:12:00,
2013-03-17 13:14:00,64.5,52.5,29.81,West,275,4.0,4.0,65,0.00,CLR,SCT,0.00,WeatherDisplay:10.37,2013-03-17 17:14:00,
2013-03-17 13:15:00,64.5,52.5,29.81,West,266,9.2,9.2,65,0.00,CLR,SCT,0.00,WeatherDisplay:10.37,2013-03-17 17:15:00,
2013-03-17 13:18:00,64.7,51.8,29.81,West,272,11.5,11.5,63,0.00,CLR,SCT,0.00,WeatherDisplay:10.37,2013-03-17 17:18:00,
2013-03-17 13:19:00,64.7,51.8,29.81,West,265,8.1,8.1,63,0.00,CLR,SCT,0.00,WeatherDisplay:10.37,2013-03-17 17:19:00,
2013-03-17 13:22:00,64.8,51.9,29.81,West,264,6.9,6.9,63,0.00,CLR,SCT,0.00,WeatherDisplay:10.37,2013-03-17 17:22:00,
2013-03-17 13:23:00,64.8,51.9,29.81,West,265,4.6,4.6,63,0.00,CLR,SCT,0.00,WeatherDisplay:10.37,2013-03-17 17:23:00,
2013-03-17 13:25:00,64.8,52.3,29.81,West,263,3.5,3.5,64,0.00,CLR,SCT,0.00,WeatherDisplay:10.37,2013-03-17 17:25:00,
2013-03-17 13:28:00,65.2,52.7,29.81,WSW,243,7.0,7.0,64,0.00,CLR,SCT,0.00,WeatherDisplay:10.37,2013-03-17 17:28:00,
2013-03-17 13:29:00,65.2,52.3,29.81,West,269,10.4,10.4,63,0.00,CLR,SCT,0.00,WeatherDisplay:10.37,2013-03-17 17:29:00,
2013-03-17 13:32:00,65.3,51.5,29.81,West,259,11.5,11.5,61,0.00,CLR,SCT,0.00,WeatherDisplay:10.37,2013-03-17 17:32:00,
2013-03-17 13:33:00,65.3,51.9,29.81,West,263,9.2,9.2,62,0.00,CLR,SCT,0.00,WeatherDisplay:10.37,2013-03-17 17:33:00,
2013-03-17 13:34:00,65.3,51.9,29.81,West,264,11.5,11.5,62,0.00,CLR,SCT,0.00,WeatherDisplay:10.37,2013-03-17 17:34:00,
2013-03-17 13:37:00,65.5,52.6,29.80,WSW,248,5.8,5.8,63,0.00,CLR,SCT,0.00,WeatherDisplay:10.37,2013-03-17 17:37:00,
2013-03-17 13:38:00,65.5,52.1,29.80,SW,232,3.5,3.5,62,0.00,CLR,SCT,0.00,WeatherDisplay:10.37,2013-03-17 17:38:00,
2013-03-17 13:39:00,65.5,52.1,29.80,SW,232,3.5,3.5,62,0.00,CLR,SCT,0.00,WeatherDisplay:10.37,2013-03-17 17:39:00,
2013-03-17 13:42:00,65.8,52.4,29.80,WSW,242,11.5,11.5,62,0.00,CLR,SCT,0.00,WeatherDisplay:10.37,2013-03-17 17:42:00,
2013-03-17 13:43:00,65.8,52.4,29.80,SW,235,6.9,6.9,62,0.00,CLR,SCT,0.00,WeatherDisplay:10.37,2013-03-17 17:43:00,
2013-03-17 13:47:00,66.1,52.7,29.79,WSW,238,6.9,6.9,62,0.00,CLR,SCT,0.00,WeatherDisplay:10.37,2013-03-17 17:47:00,
2013-03-17 13:48:00,66.1,52.3,29.79,West,265,12.0,12.0,61,0.00,CLR,SCT,0.00,WeatherDisplay:10.37,2013-03-17 17:48:00,
2013-03-17 13:50:00,66.3,52.4,29.79,West,277,11.5,11.5,61,0.00,CLR,SCT,0.00,WeatherDisplay:10.37,2013-03-17 17:50:00,
2013-03-17 13:53:00,66.3,52.0,29.79,SW,228,13.8,13.8,60,0.00,CLR,SCT,0.00,WeatherDisplay:10.37,2013-03-17 17:53:00,
2013-03-17 13:55:00,66.3,52.0,29.79,WSW,255,6.9,6.9,60,0.00,CLR,SCT,0.00,WeatherDisplay:10.37,2013-03-17 17:55:00,
2013-03-17 13:56:00,66.4,52.1,29.79,SSW,211,9.2,9.2,60,0.00,CLR,SCT,0.00,WeatherDisplay:10.37,2013-03-17 17:56:00,
2013-03-17 13:57:00,66.4,52.1,29.79,SW,216,9.2,9.2,60,0.00,CLR,SCT,0.00,WeatherDisplay:10.37,2013-03-17 17:57:00,
2013-03-17 14:00:00,66.6,52.3,29.78,WSW,238,11.5,11.5,60,0.00,CLR,SCT,0.00,WeatherDisplay:10.37,2013-03-17 18:00:00,
2013-03-17 14:03:00,66.6,52.3,29.78,West,268,9.2,9.2,60,0.00,CLR,SCT,0.00,WeatherDisplay:10.37,2013-03-17 18:03:00,
2013-03-17 14:04:00,66.6,51.8,29.78,West,263,10.4,10.4,59,0.00,CLR,SCT,0.00,WeatherDisplay:10.37,2013-03-17 18:04:00,
2013-03-17 14:07:00,66.6,51.8,29.78,WSW,257,9.2,9.2,59,0.00,,SCT,0.00,WeatherDisplay:10.37,2013-03-17 18:07:00,
2013-03-17 14:12:00,66.9,52.1,29.77,WSW,257,6.0,6.0,59,0.00,,SCT,0.00,WeatherDisplay:10.37,2013-03-17 18:12:00,
2013-03-17 14:13:00,66.9,52.1,29.77,WSW,257,5.8,5.8,59,0.00,,SCT,0.00,WeatherDisplay:10.37,2013-03-17 18:13:00,
2013-03-17 14:15:00,66.9,52.6,29.77,West,261,6.0,6.0,60,0.00,,SCT,0.00,WeatherDisplay:10.37,2013-03-17 18:15:00,
2013-03-17 14:18:00,67.1,52.7,29.77,West,270,10.4,10.4,60,0.00,,SCT,0.00,WeatherDisplay:10.37,2013-03-17 18:18:00,
2013-03-17 14:19:00,67.3,52.9,29.77,West,271,4.6,4.6,60,0.00,,SCT,0.00,WeatherDisplay:10.37,2013-03-17 18:19:00,
2013-03-17 14:20:00,67.3,52.9,29.77,West,269,4.6,4.6,60,0.00,,SCT,0.00,WeatherDisplay:10.37,2013-03-17 18:20:00,
2013-03-17 14:25:00,67.4,52.6,29.77,NW,309,1.1,0.0,59,0.00,,SCT,0.00,WeatherDisplay:10.37,2013-03-17 18:25:00,
2013-03-17 14:27:00,67.6,52.8,29.76,WSW,251,10.0,10.0,59,0.00,,SCT,0.00,WeatherDisplay:10.37,2013-03-17 18:27:00,
2013-03-17 14:30:00,67.8,52.5,29.76,West,261,11.5,11.5,58,0.00,,SCT,0.00,WeatherDisplay:10.37,2013-03-17 18:30:00,
2013-03-17 14:31:00,67.8,52.5,29.76,West,261,11.5,11.5,58,0.00,,SCT,0.00,WeatherDisplay:10.37,2013-03-17 18:31:00,
2013-03-17 14:32:00,67.8,52.0,29.76,West,261,10.4,10.4,57,0.00,,SCT,0.00,WeatherDisplay:10.37,2013-03-17 18:32:00,
2013-03-17 14:34:00,67.8,52.5,29.75,WSW,247,9.0,9.0,58,0.00,,SCT,0.00,WeatherDisplay:10.37,2013-03-17 18:34:00,
2013-03-17 14:35:00,67.8,52.5,29.75,WSW,241,10.4,10.4,58,0.00,,SCT,0.00,WeatherDisplay:10.37,2013-03-17 18:35:00,
2013-03-17 14:40:00,67.8,52.0,29.75,SSW,211,10.4,10.4,57,0.00,,SCT,0.00,WeatherDisplay:10.37,2013-03-17 18:40:00,
2013-03-17 14:41:00,67.9,52.6,29.75,WSW,245,10.4,10.4,58,0.00,,SCT,0.00,WeatherDisplay:10.37,2013-03-17 18:41:00,
2013-03-17 14:42:00,67.9,52.1,29.75,West,268,8.1,8.1,57,0.00,,SCT,0.00,WeatherDisplay:10.37,2013-03-17 18:42:00,
2013-03-17 14:44:00,68.1,52.3,29.75,WNW,300,5.8,5.8,57,0.00,,SCT,0.00,WeatherDisplay:10.37,2013-03-17 18:44:00,
2013-03-17 14:47:00,68.1,52.3,29.75,West,259,6.0,6.0,57,0.00,,SCT,0.00,WeatherDisplay:10.37,2013-03-17 18:47:00,
2013-03-17 14:48:00,68.3,52.5,29.75,West,261,5.8,5.8,57,0.00,,SCT,0.00,WeatherDisplay:10.37,2013-03-17 18:48:00,
2013-03-17 14:52:00,68.4,52.6,29.74,WSW,250,11.5,11.5,57,0.00,,SCT,0.00,WeatherDisplay:10.37,2013-03-17 18:52:00,
2013-03-17 14:53:00,68.4,52.1,29.74,WSW,252,11.5,11.5,56,0.00,,SCT,0.00,WeatherDisplay:10.37,2013-03-17 18:53:00,
2013-03-17 14:54:00,68.4,52.1,29.74,West,273,9.2,9.2,56,0.00,,SCT,0.00,WeatherDisplay:10.37,2013-03-17 18:54:00,
2013-03-17 14:56:00,68.6,52.8,29.74,West,268,8.1,8.1,57,0.00,,SCT,0.00,WeatherDisplay:10.37,2013-03-17 18:56:00,
2013-03-17 14:57:00,68.6,52.8,29.74,WSW,248,4.6,4.6,57,0.00,,SCT,0.00,WeatherDisplay:10.37,2013-03-17 18:57:00,
2013-03-17 14:59:00,68.8,52.9,29.74,WSW,248,1.1,1.1,57,0.00,,SCT,0.00,WeatherDisplay:10.37,2013-03-17 18:59:00,
2013-03-17 15:02:00,69.1,53.2,29.74,West,271,2.3,2.3,57,0.00,,SCT,0.00,WeatherDisplay:10.37,2013-03-17 19:02:00,
2013-03-17 15:04:00,69.1,52.7,29.74,West,261,5.8,5.8,56,0.00,,SCT,0.00,WeatherDisplay:10.37,2013-03-17 19:04:00,
2013-03-17 15:05:00,69.3,52.9,29.74,West,261,3.5,3.5,56,0.00,,SCT,0.00,WeatherDisplay:10.37,2013-03-17 19:05:00,
2013-03-17 15:09:00,69.4,53.0,29.74,WNW,282,6.9,6.9,56,0.00,,SCT,0.00,WeatherDisplay:10.37,2013-03-17 19:09:00,
2013-03-17 15:12:00,69.6,52.7,29.74,West,276,3.5,3.5,55,0.00,,SCT,0.00,WeatherDisplay:10.37,2013-03-17 19:12:00,
2013-03-17 15:14:00,69.6,53.2,29.73,West,265,11.5,11.5,56,0.00,,SCT,0.00,WeatherDisplay:10.37,2013-03-17 19:14:00,
2013-03-17 15:15:00,69.6,52.2,29.74,West,266,6.9,6.9,54,0.00,,SCT,0.00,WeatherDisplay:10.37,2013-03-17 19:15:00,
2013-03-17 15:17:00,69.6,52.7,29.73,West,266,2.3,2.3,55,0.00,,SCT,0.00,WeatherDisplay:10.37,2013-03-17 19:17:00,
2013-03-17 15:18:00,69.6,53.2,29.73,WSW,251,3.5,3.5,56,0.00,,SCT,0.00,WeatherDisplay:10.37,2013-03-17 19:18:00,
2013-03-17 15:20:00,69.6,52.2,29.73,West,269,11.0,11.0,54,0.00,,SCT,0.00,WeatherDisplay:10.37,2013-03-17 19:20:00,
2013-03-17 15:22:00,69.6,51.7,29.73,West,264,12.7,12.7,53,0.00,,SCT,0.00,WeatherDisplay:10.37,2013-03-17 19:22:00,
2013-03-17 15:26:00,69.6,52.7,29.73,West,278,4.6,4.6,55,0.00,,SCT,0.00,WeatherDisplay:10.37,2013-03-17 19:26:00,
2013-03-17 15:27:00,69.6,52.7,29.73,West,269,6.0,6.0,55,0.00,,SCT,0.00,WeatherDisplay:10.37,2013-03-17 19:27:00,
2013-03-17 15:29:00,69.6,52.7,29.73,NNW,335,4.0,4.0,55,0.00,,SCT,0.00,WeatherDisplay:10.37,2013-03-17 19:29:00,
2013-03-17 15:32:00,69.6,52.7,29.72,NW,311,4.0,4.0,55,0.00,,SCT,0.00,WeatherDisplay:10.37,2013-03-17 19:32:00,
2013-03-17 15:36:00,69.8,52.9,29.72,NW,312,1.0,1.0,55,0.00,,SCT,0.00,WeatherDisplay:10.37,2013-03-17 19:36:00,
2013-03-17 15:37:00,69.8,52.9,29.72,NW,316,3.5,3.5,55,0.00,,SCT,0.00,WeatherDisplay:10.37,2013-03-17 19:37:00,
2013-03-17 15:38:00,69.8,52.9,29.72,NW,319,2.3,2.3,55,0.00,,SCT,0.00,WeatherDisplay:10.37,2013-03-17 19:38:00,
2013-03-17 15:39:00,69.9,53.5,29.72,NW,319,2.3,0.0,56,0.00,,SCT,0.00,WeatherDisplay:10.37,2013-03-17 19:39:00,
2013-03-17 15:42:00,70.1,53.7,29.72,NW,319,0.0,0.0,56,0.00,,SCT,0.00,WeatherDisplay:10.37,2013-03-17 19:42:00,
2013-03-17 15:43:00,70.1,53.7,29.72,NW,319,2.3,2.3,56,0.00,,SCT,0.00,WeatherDisplay:10.37,2013-03-17 19:43:00,
2013-03-17 15:47:00,70.3,53.9,29.72,West,263,11.5,11.5,56,0.00,,SCT,0.00,WeatherDisplay:10.37,2013-03-17 19:47:00,
2013-03-17 15:48:00,70.3,53.9,29.72,WSW,256,11.5,11.5,56,0.00,,SCT,0.00,WeatherDisplay:10.37,2013-03-17 19:48:00,
2013-03-17 15:49:00,70.1,52.7,29.72,WSW,247,11.5,11.5,54,0.00,,SCT,0.00,WeatherDisplay:10.37,2013-03-17 19:49:00,
2013-03-17 15:52:00,69.8,52.4,29.72,WNW,296,5.8,5.8,54,0.00,,SCT,0.00,WeatherDisplay:10.37,2013-03-17 19:52:00,
2013-03-17 15:53:00,69.8,52.4,29.72,WNW,297,2.3,0.0,54,0.00,,SCT,0.00,WeatherDisplay:10.37,2013-03-17 19:53:00,
2013-03-17 15:54:00,69.8,52.4,29.72,WNW,298,2.0,2.0,54,0.00,,SCT,0.00,WeatherDisplay:10.37,2013-03-17 19:54:00,
2013-03-17 15:58:00,69.4,52.5,29.72,West,269,6.9,6.9,55,0.00,,SCT,0.00,WeatherDisplay:10.37,2013-03-17 19:58:00,
2013-03-17 16:00:00,69.4,52.0,29.72,West,269,5.8,5.8,54,0.00,,SCT,0.00,WeatherDisplay:10.37,2013-03-17 20:00:00,
2013-03-17 16:03:00,69.4,52.0,29.72,WNW,289,3.5,3.5,54,0.00,,SCT,0.00,WeatherDisplay:10.37,2013-03-17 20:03:00,
2013-03-17 16:04:00,69.4,52.0,29.72,WSW,248,7.0,7.0,54,0.00,,SCT,0.00,WeatherDisplay:10.37,2013-03-17 20:04:00,
2013-03-17 16:05:00,69.4,52.0,29.72,WSW,256,9.2,9.2,54,0.00,,SCT,0.00,WeatherDisplay:10.37,2013-03-17 20:05:00,
2013-03-17 16:09:00,69.1,51.8,29.72,West,261,3.5,3.5,54,0.00,,SCT,0.00,WeatherDisplay:10.37,2013-03-17 20:09:00,
2013-03-17 16:12:00,69.1,51.8,29.72,West,269,2.3,0.0,54,0.00,,SCT,0.00,WeatherDisplay:10.37,2013-03-17 20:12:00,
2013-03-17 16:14:00,69.1,51.8,29.72,WNW,301,4.0,4.0,54,0.00,,SCT,0.00,WeatherDisplay:10.37,2013-03-17 20:14:00,
2013-03-17 16:17:00,69.1,51.8,29.72,NW,306,1.1,1.1,54,0.00,,SCT,0.00,WeatherDisplay:10.37,2013-03-17 20:17:00,
2013-03-17 16:22:00,69.3,51.9,29.73,West,276,0.0,0.0,54,0.00,,SCT,0.00,WeatherDisplay:10.37,2013-03-17 20:22:00,
2013-03-17 16:23:00,69.3,51.9,29.73,West,275,0.0,0.0,54,0.00,,SCT,0.00,WeatherDisplay:10.37,2013-03-17 20:23:00,
2013-03-17 16:28:00,69.4,52.0,29.73,WSW,254,5.0,5.0,54,0.00,,SCT,0.00,WeatherDisplay:10.37,2013-03-17 20:28:00,
2013-03-17 16:29:00,69.4,52.0,29.73,WSW,254,5.0,5.0,54,0.00,,SCT,0.00,WeatherDisplay:10.37,2013-03-17 20:29:00,
2013-03-17 16:33:00,69.4,52.0,29.73,North,350,5.8,5.8,54,0.00,,SCT,0.00,WeatherDisplay:10.37,2013-03-17 20:33:00,
2013-03-17 16:34:00,69.4,52.0,29.73,NNE,14,6.9,6.9,54,0.00,,SCT,0.00,WeatherDisplay:10.37,2013-03-17 20:34:00,
2013-03-17 16:37:00,69.4,52.0,29.74,NNE,13,2.3,2.3,54,0.00,,SCT,0.00,WeatherDisplay:10.37,2013-03-17 20:37:00,
2013-03-17 16:39:00,69.6,52.2,29.73,NNE,13,3.5,3.5,54,0.00,,SCT,0.00,WeatherDisplay:10.37,2013-03-17 20:39:00,
2013-03-17 16:40:00,69.6,52.2,29.73,NNE,13,3.5,3.5,54,0.00,,SCT,0.00,WeatherDisplay:10.37,2013-03-17 20:40:00,
2013-03-17 16:42:00,69.6,52.2,29.73,NNE,13,3.5,3.5,54,0.00,,SCT,0.00,WeatherDisplay:10.37,2013-03-17 20:42:00,
2013-03-17 16:44:00,69.6,52.2,29.73,NNE,12,3.5,3.5,54,0.00,,SCT,0.00,WeatherDisplay:10.37,2013-03-17 20:44:00,
2013-03-17 16:45:00,69.6,52.2,29.73,NNE,12,1.1,0.0,54,0.00,,SCT,0.00,WeatherDisplay:10.37,2013-03-17 20:45:00,
2013-03-17 16:47:00,69.6,52.2,29.74,NNE,12,0.0,0.0,54,0.00,,SCT,0.00,WeatherDisplay:10.37,2013-03-17 20:47:00,
2013-03-17 16:49:00,69.6,52.2,29.74,NNE,12,0.0,0.0,54,0.00,,SCT,0.00,WeatherDisplay:10.37,2013-03-17 20:49:00,
2013-03-17 16:52:00,69.6,52.2,29.73,NNE,12,3.5,3.5,54,0.00,,SCT,0.00,WeatherDisplay:10.37,2013-03-17 20:52:00,
2013-03-17 16:57:00,69.4,52.0,29.73,North,5,4.6,4.6,54,0.00,,SCT,0.00,WeatherDisplay:10.37,2013-03-17 20:57:00,
2013-03-17 16:58:00,69.4,52.0,29.74,North,5,2.3,2.3,54,0.00,,SCT,0.00,WeatherDisplay:10.37,2013-03-17 20:58:00,
2013-03-17 17:00:00,69.4,51.5,29.74,ENE,71,5.0,5.0,53,0.00,,SCT,0.00,WeatherDisplay:10.37,2013-03-17 21:00:00,
2013-03-17 17:02:00,69.3,52.4,29.74,ENE,71,6.9,6.9,55,0.00,,SCT,0.00,WeatherDisplay:10.37,2013-03-17 21:02:00,
2013-03-17 17:03:00,69.1,52.2,29.74,NNE,33,9.2,9.2,55,0.00,,SCT,0.00,WeatherDisplay:10.37,2013-03-17 21:03:00,
2013-03-17 17:07:00,68.3,51.5,29.74,NE,44,3.5,3.5,55,0.00,,SCT,0.00,WeatherDisplay:10.37,2013-03-17 21:07:00,
2013-03-17 17:08:00,68.1,51.3,29.74,NE,44,1.1,1.1,55,0.00,,SCT,0.00,WeatherDisplay:10.37,2013-03-17 21:08:00,
2013-03-17 17:09:00,68.1,51.8,29.74,NE,44,2.0,2.0,56,0.00,,SCT,0.00,WeatherDisplay:10.37,2013-03-17 21:09:00,
2013-03-17 17:12:00,67.6,51.3,29.74,ENE,64,3.5,3.5,56,0.00,,SCT,0.00,WeatherDisplay:10.37,2013-03-17 21:12:00,
2013-03-17 17:14:00,67.4,51.6,29.74,ENE,70,5.8,5.8,57,0.00,,SCT,0.00,WeatherDisplay:10.37,2013-03-17 21:14:00,
2013-03-17 17:15:00,67.3,51.5,29.75,ENE,67,5.8,5.8,57,0.00,,SCT,0.00,WeatherDisplay:10.37,2013-03-17 21:15:00,
2013-03-17 17:19:00,66.8,51.5,29.75,ENE,61,11.5,11.5,58,0.00,,SCT,0.00,WeatherDisplay:10.37,2013-03-17 21:19:00,
2013-03-17 17:20:00,66.6,51.4,29.75,ENE,63,11.5,11.5,58,0.00,,SCT,0.00,WeatherDisplay:10.37,2013-03-17 21:20:00,
2013-03-17 17:23:00,66.3,51.1,29.75,ENE,65,11.5,11.5,58,0.00,,SCT,0.00,WeatherDisplay:10.37,2013-03-17 21:23:00,
2013-03-17 17:24:00,66.1,50.9,29.75,ENE,65,10.4,10.4,58,0.00,,SCT,0.00,WeatherDisplay:10.37,2013-03-17 21:24:00,
2013-03-17 17:25:00,66.1,50.9,29.75,ENE,67,11.5,11.5,58,0.00,,SCT,0.00,WeatherDisplay:10.37,2013-03-17 21:25:00,
2013-03-17 17:28:00,65.8,51.1,29.75,ENE,70,10.4,10.4,59,0.00,,SCT,0.00,WeatherDisplay:10.37,2013-03-17 21:28:00,
2013-03-17 17:29:00,65.8,51.1,29.75,ENE,70,9.2,9.2,59,0.00,,SCT,0.00,WeatherDisplay:10.37,2013-03-17 21:29:00,
2013-03-17 17:34:00,65.5,50.8,29.75,ENE,67,10.4,10.4,59,0.00,,SCT,0.00,WeatherDisplay:10.37,2013-03-17 21:34:00,
2013-03-17 17:35:00,65.5,50.8,29.75,ENE,67,9.2,9.2,59,0.00,,SCT,0.00,WeatherDisplay:10.37,2013-03-17 21:35:00,
2013-03-17 17:38:00,65.3,51.1,29.75,ENE,66,5.8,5.8,60,0.00,,SCT,0.00,WeatherDisplay:10.37,2013-03-17 21:38:00,
2013-03-17 17:40:00,65.3,51.1,29.75,ENE,76,6.9,6.9,60,0.00,,SCT,0.00,WeatherDisplay:10.37,2013-03-17 21:40:00,
2013-03-17 17:44:00,65.2,51.0,29.75,NE,52,6.9,6.9,60,0.00,,SCT,0.00,WeatherDisplay:10.37,2013-03-17 21:44:00,
2013-03-17 17:45:00,65.2,51.0,29.75,NE,52,6.9,6.9,60,0.00,,SCT,0.00,WeatherDisplay:10.37,2013-03-17 21:45:00,
2013-03-17 17:49:00,65.2,51.4,29.74,ENE,74,8.1,8.1,61,0.00,,SCT,0.00,WeatherDisplay:10.37,2013-03-17 21:49:00,
2013-03-17 17:50:00,65.2,51.4,29.75,ENE,69,8.1,8.1,61,0.00,,SCT,0.00,WeatherDisplay:10.37,2013-03-17 21:50:00,
2013-03-17 17:53:00,65.0,51.2,29.74,ENE,64,10.4,10.4,61,0.00,,SCT,0.00,WeatherDisplay:10.37,2013-03-17 21:53:00,
2013-03-17 17:55:00,65.0,51.2,29.74,ENE,66,11.5,11.5,61,0.00,,SCT,0.00,WeatherDisplay:10.37,2013-03-17 21:55:00,
2013-03-17 17:56:00,64.8,51.0,29.74,ENE,66,10.4,10.4,61,0.00,,SCT,0.00,WeatherDisplay:10.37,2013-03-17 21:56:00,
2013-03-17 17:58:00,64.8,51.5,29.74,ENE,61,10.4,10.4,62,0.00,,SCT,0.00,WeatherDisplay:10.37,2013-03-17 21:58:00,
2013-03-17 17:59:00,64.7,51.4,29.74,ENE,62,10.4,10.4,62,0.00,,SCT,0.00,WeatherDisplay:10.37,2013-03-17 21:59:00,
2013-03-17 18:00:00,64.7,51.4,29.74,ENE,63,9.2,9.2,62,0.00,,SCT,0.00,WeatherDisplay:10.37,2013-03-17 22:00:00,
2013-03-17 18:04:00,64.5,51.2,29.74,ENE,71,6.0,6.0,62,0.00,,SCT,0.00,WeatherDisplay:10.37,2013-03-17 22:04:00,
2013-03-17 18:05:00,64.3,51.0,29.74,ENE,71,5.8,5.8,62,0.00,,SCT,0.00,WeatherDisplay:10.37,2013-03-17 22:05:00,
2013-03-17 18:07:00,64.3,51.0,29.74,ENE,71,4.6,4.6,62,0.00,,SCT,0.00,WeatherDisplay:10.37,2013-03-17 22:07:00,
2013-03-17 18:08:00,64.2,50.9,29.74,ENE,71,5.8,5.8,62,0.00,,SCT,0.00,WeatherDisplay:10.37,2013-03-17 22:08:00,
2013-03-17 18:10:00,64.2,50.9,29.74,ENE,71,6.9,6.9,62,0.00,,SCT,0.00,WeatherDisplay:10.37,2013-03-17 22:10:00,
2013-03-17 18:11:00,64.0,50.7,29.74,ENE,71,6.9,6.9,62,0.00,,SCT,0.00,WeatherDisplay:10.37,2013-03-17 22:11:00,
2013-03-17 18:15:00,63.9,50.6,29.74,ENE,69,6.9,6.9,62,0.00,,SCT,0.00,WeatherDisplay:10.37,2013-03-17 22:15:00,
2013-03-17 18:18:00,63.7,50.9,29.74,ENE,69,6.9,6.9,63,0.00,,SCT,0.00,WeatherDisplay:10.37,2013-03-17 22:18:00,
2013-03-17 18:19:00,63.7,50.4,29.74,ENE,69,5.8,5.8,62,0.00,,SCT,0.00,WeatherDisplay:10.37,2013-03-17 22:19:00,
2013-03-17 18:20:00,63.7,50.9,29.74,ENE,69,5.8,5.8,63,0.00,,SCT,0.00,WeatherDisplay:10.37,2013-03-17 22:20:00,
2013-03-17 18:23:00,63.7,50.9,29.74,ENE,69,5.8,5.8,63,0.00,,SCT,0.00,WeatherDisplay:10.37,2013-03-17 22:23:00,
2013-03-17 18:24:00,63.7,50.9,29.74,ENE,69,5.0,5.0,63,0.00,,SCT,0.00,WeatherDisplay:10.37,2013-03-17 22:24:00,
2013-03-17 18:25:00,63.7,50.9,29.74,ENE,69,4.6,4.6,63,0.00,,SCT,0.00,WeatherDisplay:10.37,2013-03-17 22:25:00,
2013-03-17 18:27:00,63.5,50.7,29.74,ENE,69,4.6,4.6,63,0.00,,SCT,0.00,WeatherDisplay:10.37,2013-03-17 22:27:00,
2013-03-17 18:32:00,63.5,50.7,29.74,ENE,69,4.6,4.6,63,0.00,,SCT,0.00,WeatherDisplay:10.37,2013-03-17 22:32:00,
2013-03-17 18:33:00,63.5,50.7,29.74,ENE,69,4.6,4.6,63,0.00,,SCT,0.00,WeatherDisplay:10.37,2013-03-17 22:33:00,
2013-03-17 18:34:00,63.4,50.6,29.74,ENE,69,4.6,4.6,63,0.00,,SCT,0.00,WeatherDisplay:10.37,2013-03-17 22:34:00,
2013-03-17 18:38:00,63.4,51.0,29.74,ENE,67,4.6,4.6,64,0.00,,SCT,0.00,WeatherDisplay:10.37,2013-03-17 22:38:00,
2013-03-17 18:39:00,63.4,51.0,29.74,ENE,67,5.0,5.0,64,0.00,,SCT,0.00,WeatherDisplay:10.37,2013-03-17 22:39:00,
2013-03-17 18:40:00,63.4,51.0,29.74,ENE,67,5.0,5.0,64,0.00,,SCT,0.00,WeatherDisplay:10.37,2013-03-17 22:40:00,
2013-03-17 18:42:00,63.2,50.8,29.74,ENE,67,4.6,4.6,64,0.00,,SCT,0.00,WeatherDisplay:10.37,2013-03-17 22:42:00,
2013-03-17 18:45:00,63.1,50.7,29.74,ENE,67,5.0,5.0,64,0.00,,SCT,0.00,WeatherDisplay:10.37,2013-03-17 22:45:00,
2013-03-17 18:46:00,63.1,50.7,29.74,ENE,67,4.6,4.6,64,0.00,,SCT,0.00,WeatherDisplay:10.37,2013-03-17 22:46:00,
2013-03-17 18:47:00,63.1,50.7,29.74,ENE,67,3.5,3.5,64,0.00,,SCT,0.00,WeatherDisplay:10.37,2013-03-17 22:47:00,
2013-03-17 18:48:00,63.1,50.7,29.74,ENE,67,4.0,4.0,64,0.00,,SCT,0.00,WeatherDisplay:10.37,2013-03-17 22:48:00,
2013-03-17 18:51:00,62.9,50.5,29.75,ENE,67,2.3,0.0,64,0.00,,SCT,0.00,WeatherDisplay:10.37,2013-03-17 22:51:00,
2013-03-17 18:52:00,62.7,50.3,29.74,ENE,67,1.1,0.0,64,0.00,,SCT,0.00,WeatherDisplay:10.37,2013-03-17 22:52:00,
2013-03-17 18:56:00,62.6,50.2,29.75,ENE,67,0.0,0.0,64,0.00,,SCT,0.00,WeatherDisplay:10.37,2013-03-17 22:56:00,
2013-03-17 18:57:00,62.6,50.2,29.75,ENE,67,0.0,0.0,64,0.00,,SCT,0.00,WeatherDisplay:10.37,2013-03-17 22:57:00,
2013-03-17 18:58:00,62.6,50.2,29.75,ENE,67,0.0,0.0,64,0.00,,SCT,0.00,WeatherDisplay:10.37,2013-03-17 22:58:00,
2013-03-17 19:03:00,62.3,50.4,29.75,ENE,67,0.0,0.0,65,0.00,,SCT,0.00,WeatherDisplay:10.37,2013-03-17 23:03:00,
2013-03-17 19:04:00,62.3,50.4,29.75,ENE,67,0.0,0.0,65,0.00,,SCT,0.00,WeatherDisplay:10.37,2013-03-17 23:04:00,
2013-03-17 19:05:00,62.3,50.4,29.76,ENE,67,0.0,0.0,65,0.00,,SCT,0.00,WeatherDisplay:10.37,2013-03-17 23:05:00,
2013-03-17 19:08:00,62.1,50.2,29.76,ENE,67,0.0,0.0,65,0.00,,SCT,0.00,WeatherDisplay:10.37,2013-03-17 23:08:00,
2013-03-17 19:11:00,62.0,50.1,29.76,ENE,67,0.0,0.0,65,0.00,,SCT,0.00,WeatherDisplay:10.37,2013-03-17 23:11:00,
2013-03-17 19:12:00,62.0,50.1,29.76,ENE,67,0.0,0.0,65,0.00,,SCT,0.00,WeatherDisplay:10.37,2013-03-17 23:12:00,
2013-03-17 19:14:00,61.8,49.9,29.76,ENE,67,0.0,0.0,65,0.00,,SCT,0.00,WeatherDisplay:10.37,2013-03-17 23:14:00,
2013-03-17 19:19:00,61.6,49.7,29.76,ENE,67,0.0,0.0,65,0.00,,SCT,0.00,WeatherDisplay:10.37,2013-03-17 23:19:00,
2013-03-17 19:20:00,61.6,49.7,29.76,ENE,67,0.0,0.0,65,0.00,,SCT,0.00,WeatherDisplay:10.37,2013-03-17 23:20:00,
2013-03-17 19:23:00,61.5,49.6,29.76,ENE,67,0.0,0.0,65,0.00,,SCT,0.00,WeatherDisplay:10.37,2013-03-17 23:23:00,
2013-03-17 19:24:00,61.3,49.4,29.76,ENE,57,0.0,0.0,65,0.00,,SCT,0.00,WeatherDisplay:10.37,2013-03-17 23:24:00,
2013-03-17 19:27:00,61.2,49.7,29.76,ENE,57,0.0,0.0,66,0.00,,SCT,0.00,WeatherDisplay:10.37,2013-03-17 23:27:00,
2013-03-17 19:28:00,61.2,49.7,29.76,ENE,57,0.0,0.0,66,0.00,,SCT,0.00,WeatherDisplay:10.37,2013-03-17 23:28:00,
2013-03-17 19:29:00,61.2,49.7,29.76,ENE,57,0.0,0.0,66,0.00,,SCT,0.00,WeatherDisplay:10.37,2013-03-17 23:29:00,
2013-03-17 19:34:00,60.7,49.3,29.76,ENE,57,0.0,0.0,66,0.00,,SCT,0.00,WeatherDisplay:10.37,2013-03-17 23:34:00,
2013-03-17 19:35:00,60.7,49.3,29.76,ENE,57,0.0,0.0,66,0.00,,SCT,0.00,WeatherDisplay:10.37,2013-03-17 23:35:00,
2013-03-17 19:40:00,60.4,49.0,29.77,ENE,57,0.0,0.0,66,0.00,,SCT,0.00,WeatherDisplay:10.37,2013-03-17 23:40:00,
2013-03-17 19:41:00,60.4,49.4,29.77,ENE,57,0.0,0.0,67,0.00,,SCT,0.00,WeatherDisplay:10.37,2013-03-17 23:41:00,
2013-03-17 19:42:00,60.4,49.4,29.77,ENE,57,0.0,0.0,67,0.00,,SCT,0.00,WeatherDisplay:10.37,2013-03-17 23:42:00,
2013-03-17 19:44:00,60.2,49.6,29.77,ENE,57,0.0,0.0,68,0.00,,SCT,0.00,WeatherDisplay:10.37,2013-03-17 23:44:00,
2013-03-17 19:45:00,60.2,49.6,29.77,ENE,57,0.0,0.0,68,0.00,,SCT,0.00,WeatherDisplay:10.37,2013-03-17 23:45:00,
2013-03-17 19:48:00,60.1,49.5,29.77,ENE,57,0.0,0.0,68,0.00,,SCT,0.00,WeatherDisplay:10.37,2013-03-17 23:48:00,
2013-03-17 19:50:00,59.9,48.9,29.77,ENE,57,0.0,0.0,67,0.00,,SCT,0.00,WeatherDisplay:10.37,2013-03-17 23:50:00,
2013-03-17 19:51:00,59.9,49.3,29.77,ENE,57,0.0,0.0,68,0.00,,SCT,0.00,WeatherDisplay:10.37,2013-03-17 23:51:00,
2013-03-17 19:56:00,59.9,49.3,29.77,ENE,57,2.0,0.0,68,0.00,,SCT,0.00,WeatherDisplay:10.37,2013-03-17 23:56:00,
2013-03-17 19:57:00,59.8,49.2,29.77,ENE,57,5.8,5.8,68,0.00,,SCT,0.00,WeatherDisplay:10.37,2013-03-17 23:57:00,
2013-03-17 20:00:00,59.8,49.2,29.77,ENE,57,4.6,4.6,68,0.00,,SCT,0.00,WeatherDisplay:10.37,2013-03-18 00:00:00,
2013-03-17 20:03:00,59.6,49.0,29.77,ENE,57,0.0,0.0,68,0.00,,SCT,0.00,WeatherDisplay:10.37,2013-03-18 00:03:00,
2013-03-17 20:04:00,59.6,49.0,29.77,ENE,57,0.0,0.0,68,0.00,,SCT,0.00,WeatherDisplay:10.37,2013-03-18 00:04:00,
2013-03-17 20:05:00,59.6,49.0,29.77,ENE,57,0.0,0.0,68,0.00,,SCT,0.00,WeatherDisplay:10.37,2013-03-18 00:05:00,
2013-03-17 20:09:00,59.6,49.0,29.78,ENE,57,0.0,0.0,68,0.00,,SCT,0.00,WeatherDisplay:10.37,2013-03-18 00:09:00,
2013-03-17 20:10:00,59.5,49.3,29.78,ENE,57,0.0,0.0,69,0.00,,SCT,0.00,WeatherDisplay:10.37,2013-03-18 00:10:00,
2013-03-17 20:13:00,59.5,48.9,29.78,ENE,57,0.0,0.0,68,0.00,,SCT,0.00,WeatherDisplay:10.37,2013-03-18 00:13:00,
2013-03-17 20:15:00,59.3,48.7,29.78,ENE,57,0.0,0.0,68,0.00,,SCT,0.00,WeatherDisplay:10.37,2013-03-18 00:15:00,
2013-03-17 20:19:00,59.2,49.0,29.78,ENE,57,0.0,0.0,69,0.00,,SCT,0.00,WeatherDisplay:10.37,2013-03-18 00:19:00,
2013-03-17 20:20:00,59.2,49.0,29.78,ENE,57,0.0,0.0,69,0.00,,SCT,0.00,WeatherDisplay:10.37,2013-03-18 00:20:00,
2013-03-17 20:21:00,59.0,48.4,29.78,ENE,57,0.0,0.0,68,0.00,,SCT,0.00,WeatherDisplay:10.37,2013-03-18 00:21:00,
2013-03-17 20:22:00,59.0,48.4,29.78,ENE,57,0.0,0.0,68,0.00,,SCT,0.00,WeatherDisplay:10.37,2013-03-18 00:22:00,
2013-03-17 20:25:00,58.9,48.7,29.78,ENE,57,0.0,0.0,69,0.00,,SCT,0.00,WeatherDisplay:10.37,2013-03-18 00:25:00,
2013-03-17 20:29:00,58.9,48.7,29.78,ENE,57,0.0,0.0,69,0.00,,SCT,0.00,WeatherDisplay:10.37,2013-03-18 00:29:00,
2013-03-17 20:30:00,58.7,48.6,29.78,ENE,57,0.0,0.0,69,0.00,,SCT,0.00,WeatherDisplay:10.37,2013-03-18 00:30:00,
2013-03-17 20:31:00,58.7,48.6,29.79,ENE,57,0.0,0.0,69,0.00,,SCT,0.00,WeatherDisplay:10.37,2013-03-18 00:31:00,
2013-03-17 20:32:00,58.7,48.6,29.79,ENE,57,0.0,0.0,69,0.00,,SCT,0.00,WeatherDisplay:10.37,2013-03-18 00:32:00,
2013-03-17 20:35:00,58.6,48.5,29.79,ENE,57,0.0,0.0,69,0.00,,SCT,0.00,WeatherDisplay:10.37,2013-03-18 00:35:00,
2013-03-17 20:38:00,58.4,48.3,29.79,ENE,57,0.0,0.0,69,0.00,,SCT,0.00,WeatherDisplay:10.37,2013-03-18 00:38:00,
2013-03-17 20:40:00,58.4,48.3,29.79,ENE,57,0.0,0.0,69,0.00,,SCT,0.00,WeatherDisplay:10.37,2013-03-18 00:40:00,
2013-03-17 20:41:00,58.3,48.2,29.79,ENE,57,0.0,0.0,69,0.00,,SCT,0.00,WeatherDisplay:10.37,2013-03-18 00:41:00,
2013-03-17 20:45:00,58.1,48.4,29.79,ENE,59,5.8,5.8,70,0.00,,SCT,0.00,WeatherDisplay:10.37,2013-03-18 00:45:00,
2013-03-17 20:48:00,58.0,48.3,29.79,NE,53,6.9,6.9,70,0.00,,SCT,0.00,WeatherDisplay:10.37,2013-03-18 00:48:00,
2013-03-17 20:50:00,58.0,48.3,29.79,NE,53,0.0,0.0,70,0.00,,SCT,0.00,WeatherDisplay:10.37,2013-03-18 00:50:00,
2013-03-17 20:51:00,58.0,48.3,29.79,NE,55,3.0,3.0,70,0.00,,SCT,0.00,WeatherDisplay:10.37,2013-03-18 00:51:00,
2013-03-17 20:54:00,58.0,48.3,29.80,ENE,63,5.0,5.0,70,0.00,,SCT,0.00,WeatherDisplay:10.37,2013-03-18 00:54:00,
2013-03-17 20:57:00,58.1,48.4,29.80,ENE,63,5.8,5.8,70,0.00,,SCT,0.00,WeatherDisplay:10.37,2013-03-18 00:57:00,
2013-03-17 20:59:00,58.1,48.7,29.80,ENE,63,4.6,4.6,71,0.00,,SCT,0.00,WeatherDisplay:10.37,2013-03-18 00:59:00,
2013-03-17 21:01:00,58.1,48.7,29.80,ENE,71,4.6,4.6,71,0.00,,SCT,0.00,WeatherDisplay:10.37,2013-03-18 01:01:00,
2013-03-17 21:02:00,58.0,48.6,29.80,ENE,71,4.6,4.6,71,0.00,,SCT,0.00,WeatherDisplay:10.37,2013-03-18 01:02:00,
2013-03-17 21:04:00,58.0,48.6,29.80,ENE,71,4.6,4.6,71,0.00,,SCT,0.00,WeatherDisplay:10.37,2013-03-18 01:04:00,
2013-03-17 21:07:00,57.8,48.5,29.80,ENE,71,5.8,5.8,71,0.00,,SCT,0.00,WeatherDisplay:10.37,2013-03-18 01:07:00,
2013-03-17 21:12:00,57.6,48.3,29.80,ENE,71,3.5,3.5,71,0.00,,SCT,0.00,WeatherDisplay:10.37,2013-03-18 01:12:00,
2013-03-17 21:13:00,57.6,48.3,29.80,ENE,71,3.5,3.5,71,0.00,,SCT,0.00,WeatherDisplay:10.37,2013-03-18 01:13:00,
2013-03-17 21:15:00,57.5,48.2,29.80,ENE,71,3.5,3.5,71,0.00,,SCT,0.00,WeatherDisplay:10.37,2013-03-18 01:15:00,
2013-03-17 21:19:00,57.3,48.0,29.80,ENE,71,3.5,3.5,71,0.00,,SCT,0.00,WeatherDisplay:10.37,2013-03-18 01:19:00,
2013-03-17 21:20:00,57.2,47.9,29.80,ENE,71,3.5,3.5,71,0.00,,SCT,0.00,WeatherDisplay:10.37,2013-03-18 01:20:00,
2013-03-17 21:22:00,57.2,47.9,29.80,ENE,71,0.0,0.0,71,0.00,,SCT,0.00,WeatherDisplay:10.37,2013-03-18 01:22:00,
2013-03-17 21:27:00,57.2,47.9,29.80,ENE,71,3.5,3.5,71,0.00,,SCT,0.00,WeatherDisplay:10.37,2013-03-18 01:27:00,
2013-03-17 21:29:00,57.0,47.7,29.80,ENE,71,4.6,4.6,71,0.00,,SCT,0.00,WeatherDisplay:10.37,2013-03-18 01:29:00,
2013-03-17 21:32:00,56.9,47.6,29.80,ENE,71,4.6,4.6,71,0.00,,SCT,0.00,WeatherDisplay:10.37,2013-03-18 01:32:00,
2013-03-17 21:33:00,56.9,47.6,29.81,ENE,71,4.6,4.6,71,0.00,,SCT,0.00,WeatherDisplay:10.37,2013-03-18 01:33:00,
2013-03-17 21:34:00,56.9,47.6,29.81,ENE,71,4.6,4.6,71,0.00,,SCT,0.00,WeatherDisplay:10.37,2013-03-18 01:34:00,
2013-03-17 21:38:00,56.7,47.4,29.81,ENE,71,0.0,0.0,71,0.00,,SCT,0.00,WeatherDisplay:10.37,2013-03-18 01:38:00,
2013-03-17 21:39:00,56.6,47.7,29.81,ENE,71,0.0,0.0,72,0.00,,SCT,0.00,WeatherDisplay:10.37,2013-03-18 01:39:00,
2013-03-17 21:42:00,56.5,47.6,29.81,ENE,71,6.9,6.9,72,0.00,,SCT,0.00,WeatherDisplay:10.37,2013-03-18 01:42:00,
2013-03-17 21:47:00,56.3,47.4,29.81,ENE,71,3.5,3.5,72,0.00,,SCT,0.00,WeatherDisplay:10.37,2013-03-18 01:47:00,
2013-03-17 21:49:00,56.3,47.4,29.81,ENE,71,4.6,4.6,72,0.00,,SCT,0.00,WeatherDisplay:10.37,2013-03-18 01:49:00,
2013-03-17 21:51:00,56.2,47.3,29.81,ENE,71,2.3,0.0,72,0.00,,SCT,0.00,WeatherDisplay:10.37,2013-03-18 01:51:00,
2013-03-17 21:54:00,56.2,47.3,29.81,ENE,71,0.0,0.0,72,0.00,,SCT,0.00,WeatherDisplay:10.37,2013-03-18 01:54:00,
2013-03-17 21:57:00,56.0,47.1,29.81,ENE,71,0.0,0.0,72,0.00,,SCT,0.00,WeatherDisplay:10.37,2013-03-18 01:57:00,
2013-03-17 21:58:00,56.0,47.1,29.81,ENE,71,0.0,0.0,72,0.00,,SCT,0.00,WeatherDisplay:10.37,2013-03-18 01:58:00,
2013-03-17 22:00:00,55.9,47.4,29.81,ENE,71,0.0,0.0,73,0.00,,SCT,0.00,WeatherDisplay:10.37,2013-03-18 02:00:00,
2013-03-17 22:02:00,55.9,47.4,29.81,ENE,71,0.0,0.0,73,0.00,,SCT,0.00,WeatherDisplay:10.37,2013-03-18 02:02:00,
2013-03-17 22:03:00,55.9,47.0,29.82,ENE,71,0.0,0.0,72,0.00,,SCT,0.00,WeatherDisplay:10.37,2013-03-18 02:03:00,
2013-03-17 22:05:00,55.7,46.8,29.81,ENE,71,0.0,0.0,72,0.00,,SCT,0.00,WeatherDisplay:10.37,2013-03-18 02:05:00,
2013-03-17 22:09:00,55.6,46.7,29.81,ENE,71,0.0,0.0,72,0.00,,SCT,0.00,WeatherDisplay:10.37,2013-03-18 02:09:00,
2013-03-17 22:11:00,55.4,46.5,29.81,ENE,71,0.0,0.0,72,0.00,,SCT,0.00,WeatherDisplay:10.37,2013-03-18 02:11:00,
2013-03-17 22:14:00,55.3,46.8,29.81,ENE,71,0.0,0.0,73,0.00,,SCT,0.00,WeatherDisplay:10.37,2013-03-18 02:14:00,
2013-03-17 22:15:00,55.3,46.4,29.81,ENE,71,0.0,0.0,72,0.00,,SCT,0.00,WeatherDisplay:10.37,2013-03-18 02:15:00,
2013-03-17 22:16:00,55.3,46.4,29.81,ENE,71,0.0,0.0,72,0.00,,SCT,0.00,WeatherDisplay:10.37,2013-03-18 02:16:00,
2013-03-17 22:19:00,55.1,46.2,29.81,ENE,71,0.0,0.0,72,0.00,,SCT,0.00,WeatherDisplay:10.37,2013-03-18 02:19:00,
2013-03-17 22:20:00,55.0,46.1,29.81,ENE,71,0.0,0.0,72,0.00,,SCT,0.00,WeatherDisplay:10.37,2013-03-18 02:20:00,
2013-03-17 22:21:00,55.0,46.1,29.81,ENE,71,0.0,0.0,72,0.00,,SCT,0.00,WeatherDisplay:10.37,2013-03-18 02:21:00,
2013-03-17 22:25:00,54.7,46.2,29.82,ENE,71,0.0,0.0,73,0.00,,SCT,0.00,WeatherDisplay:10.37,2013-03-18 02:25:00,
2013-03-17 22:27:00,54.5,45.7,29.82,ENE,71,0.0,0.0,72,0.00,,SCT,0.00,WeatherDisplay:10.37,2013-03-18 02:27:00,
2013-03-17 22:29:00,54.4,45.9,29.82,ENE,71,0.0,0.0,73,0.00,,SCT,0.00,WeatherDisplay:10.37,2013-03-18 02:29:00,
2013-03-17 22:30:00,54.2,45.7,29.82,ENE,71,0.0,0.0,73,0.00,,SCT,0.00,WeatherDisplay:10.37,2013-03-18 02:30:00,
2013-03-17 22:35:00,53.8,45.3,29.82,ENE,71,0.0,0.0,73,0.00,,SCT,0.00,WeatherDisplay:10.37,2013-03-18 02:35:00,
2013-03-17 22:37:00,53.5,45.1,29.82,ENE,71,0.0,0.0,73,0.00,,SCT,0.00,WeatherDisplay:10.37,2013-03-18 02:37:00,
2013-03-17 22:38:00,53.5,45.1,29.81,ENE,71,0.0,0.0,73,0.00,,SCT,0.00,WeatherDisplay:10.37,2013-03-18 02:38:00,
2013-03-17 22:41:00,53.2,44.8,29.82,ENE,71,0.0,0.0,73,0.00,,SCT,0.00,WeatherDisplay:10.37,2013-03-18 02:41:00,
2013-03-17 22:42:00,53.2,44.8,29.82,ENE,71,0.0,0.0,73,0.00,,SCT,0.00,WeatherDisplay:10.37,2013-03-18 02:42:00,
2013-03-17 22:43:00,53.2,44.8,29.82,ENE,71,0.0,0.0,73,0.00,,SCT,0.00,WeatherDisplay:10.37,2013-03-18 02:43:00,
2013-03-17 22:47:00,52.9,44.5,29.82,ENE,71,0.0,0.0,73,0.00,,SCT,0.00,WeatherDisplay:10.37,2013-03-18 02:47:00,
2013-03-17 22:49:00,52.8,44.4,29.82,ENE,71,0.0,0.0,73,0.00,,SCT,0.00,WeatherDisplay:10.37,2013-03-18 02:49:00,
2013-03-17 22:51:00,52.6,44.2,29.82,ENE,71,0.0,0.0,73,0.00,,SCT,0.00,WeatherDisplay:10.37,2013-03-18 02:51:00,
2013-03-17 22:54:00,52.3,43.9,29.82,ENE,71,0.0,0.0,73,0.00,,SCT,0.00,WeatherDisplay:10.37,2013-03-18 02:54:00,
2013-03-17 22:57:00,52.0,43.6,29.82,ENE,71,0.0,0.0,73,0.00,,SCT,0.00,WeatherDisplay:10.37,2013-03-18 02:57:00,
2013-03-17 22:58:00,51.9,43.5,29.82,ENE,71,0.0,0.0,73,0.00,,SCT,0.00,WeatherDisplay:10.37,2013-03-18 02:58:00,
2013-03-17 23:00:00,51.7,43.3,29.82,ENE,71,0.0,0.0,73,0.00,,SCT,0.00,WeatherDisplay:10.37,2013-03-18 03:00:00,
2013-03-17 23:02:00,51.4,43.0,29.82,ENE,71,0.0,0.0,73,0.00,,SCT,0.00,WeatherDisplay:10.37,2013-03-18 03:02:00,
2013-03-17 23:04:00,51.3,43.3,29.82,ENE,71,0.0,0.0,74,0.00,,SCT,0.00,WeatherDisplay:10.37,2013-03-18 03:04:00,
2013-03-17 23:07:00,51.1,43.1,29.82,ENE,71,0.0,0.0,74,0.00,,SCT,0.00,WeatherDisplay:10.37,2013-03-18 03:07:00,
2013-03-17 23:08:00,51.0,43.0,29.82,ENE,71,0.0,0.0,74,0.00,,SCT,0.00,WeatherDisplay:10.37,2013-03-18 03:08:00,
2013-03-17 23:10:00,51.0,43.0,29.82,ENE,71,0.0,0.0,74,0.00,,SCT,0.00,WeatherDisplay:10.37,2013-03-18 03:10:00,
2013-03-17 23:12:00,50.8,42.8,29.81,ENE,71,0.0,0.0,74,0.00,,SCT,0.00,WeatherDisplay:10.37,2013-03-18 03:12:00,
2013-03-17 23:14:00,50.7,42.7,29.81,ENE,71,0.0,0.0,74,0.00,,SCT,0.00,WeatherDisplay:10.37,2013-03-18 03:14:00,
2013-03-17 23:16:00,50.5,42.5,29.81,ENE,71,0.0,0.0,74,0.00,,SCT,0.00,WeatherDisplay:10.37,2013-03-18 03:16:00,
2013-03-17 23:21:00,50.2,42.2,29.81,ENE,71,0.0,0.0,74,0.00,,SCT,0.00,WeatherDisplay:10.37,2013-03-18 03:21:00,
2013-03-17 23:22:00,50.1,42.1,29.81,ENE,71,0.0,0.0,74,0.00,,SCT,0.00,WeatherDisplay:10.37,2013-03-18 03:22:00,
2013-03-17 23:25:00,49.9,41.9,29.81,ENE,71,0.0,0.0,74,0.00,,SCT,0.00,WeatherDisplay:10.37,2013-03-18 03:25:00,
2013-03-17 23:27:00,49.8,41.8,29.81,ENE,71,0.0,0.0,74,0.00,,SCT,0.00,WeatherDisplay:10.37,2013-03-18 03:27:00,
2013-03-17 23:28:00,49.8,41.8,29.81,ENE,71,0.0,0.0,74,0.00,,SCT,0.00,WeatherDisplay:10.37,2013-03-18 03:28:00,
2013-03-17 23:32:00,49.6,41.7,29.81,ENE,71,0.0,0.0,74,0.00,,SCT,0.00,WeatherDisplay:10.37,2013-03-18 03:32:00,
2013-03-17 23:33:00,49.6,41.7,29.81,ENE,71,0.0,0.0,74,0.00,,SCT,0.00,WeatherDisplay:10.37,2013-03-18 03:33:00,
2013-03-17 23:34:00,49.5,41.6,29.81,ENE,71,0.0,0.0,74,0.00,,SCT,0.00,WeatherDisplay:10.37,2013-03-18 03:34:00,
2013-03-17 23:38:00,49.4,41.5,29.81,ENE,71,0.0,0.0,74,0.00,,SCT,0.00,WeatherDisplay:10.37,2013-03-18 03:38:00,
2013-03-17 23:39:00,49.4,41.5,29.81,ENE,71,0.0,0.0,74,0.00,,SCT,0.00,WeatherDisplay:10.37,2013-03-18 03:39:00,
2013-03-17 23:42:00,49.2,41.3,29.81,ENE,71,0.0,0.0,74,0.00,,SCT,0.00,WeatherDisplay:10.37,2013-03-18 03:42:00,
2013-03-17 23:43:00,49.2,41.6,29.81,ENE,71,0.0,0.0,75,0.00,,SCT,0.00,WeatherDisplay:10.37,2013-03-18 03:43:00,
2013-03-17 23:45:00,49.1,41.5,29.81,ENE,71,0.0,0.0,75,0.00,,SCT,0.00,WeatherDisplay:10.37,2013-03-18 03:45:00,
2013-03-17 23:47:00,48.9,41.3,29.81,ENE,71,0.0,0.0,75,0.00,,SCT,0.00,WeatherDisplay:10.37,2013-03-18 03:47:00,
2013-03-17 23:50:00,48.9,41.3,29.81,ENE,71,0.0,0.0,75,0.00,,SCT,0.00,WeatherDisplay:10.37,2013-03-18 03:50:00,
2013-03-17 23:51:00,48.8,41.2,29.81,ENE,71,0.0,0.0,75,0.00,,SCT,0.00,WeatherDisplay:10.37,2013-03-18 03:51:00,
2013-03-17 23:54:00,48.8,41.2,29.81,ENE,71,0.0,0.0,75,0.00,,SCT,0.00,WeatherDisplay:10.37,2013-03-18 03:54:00,
2013-03-17 23:55:00,48.6,41.0,29.81,ENE,71,0.0,0.0,75,0.00,,SCT,0.00,WeatherDisplay:10.37,2013-03-18 03:55:00,
2013-03-17 23:57:00,48.6,41.4,29.81,ENE,71,0.0,0.0,76,0.00,,SCT,0.00,WeatherDisplay:10.37,2013-03-18 03:57:00,